Provisional Data: Susquehanna River near Binghamton, NY


Please select a monitoring station.
Please select start date.
Please select start date.

Toggle Unit: C/F Toggle Unit: C/F
Sample Time Temperature (C) Temperature (F) Specific Conductivity (mS/cm) pH   Turbidity (NTU+) DO (mg/L)
1/12/2021 12:00:00 AM 7.6992 1.3649
1/12/2021 12:15:00 AM 7.6983 1.3454
1/12/2021 12:30:00 AM 7.6965 1.265
1/12/2021 12:45:00 AM 7.689 1.2613
1/12/2021 1:00:00 AM 7.6922 1.2401
1/12/2021 1:15:00 AM 7.6907 1.2806
1/12/2021 1:30:00 AM 7.6912 1.2278
1/12/2021 1:45:00 AM 7.6886 1.2358
1/12/2021 2:00:00 AM 7.684 1.2284
1/12/2021 2:15:00 AM 7.6837 1.2418
1/12/2021 2:30:00 AM 7.6834 1.2176
1/12/2021 2:45:00 AM 7.6818 1.2999
1/12/2021 3:00:00 AM 7.6773 1.2597
1/12/2021 3:15:00 AM 7.6887 1.3025
1/12/2021 3:30:00 AM 7.6896 1.3634
1/12/2021 3:45:00 AM 7.6914 1.3194
1/12/2021 4:00:00 AM 7.7071 1.2918
1/12/2021 4:15:00 AM 7.7249 1.238
1/12/2021 4:30:00 AM 7.7193 1.2393
1/12/2021 4:45:00 AM 7.7091 1.2258
1/12/2021 5:00:00 AM 7.6953 1.2398
1/12/2021 5:15:00 AM 7.6866 1.2522
1/12/2021 5:30:00 AM 7.6941 1.2596
1/12/2021 5:45:00 AM 7.6904 1.3
1/12/2021 6:00:00 AM 7.3654 1.3379
1/12/2021 6:15:00 AM 7.4401 1.3454
1/12/2021 6:30:00 AM 7.5027 1.2766
1/12/2021 6:45:00 AM 7.5463 1.2181
1/12/2021 7:00:00 AM 7.5766 1.247
1/12/2021 7:15:00 AM 7.5921 1.247
1/12/2021 7:30:00 AM 7.6092 1.2187
1/12/2021 7:45:00 AM 7.6157 1.2343
1/12/2021 8:00:00 AM 7.6206 1.2412
1/12/2021 8:15:00 AM 7.6502 1.228
1/12/2021 8:30:00 AM 7.6931 1.2296
1/12/2021 8:45:00 AM 7.7224 1.3
1/12/2021 9:00:00 AM 7.7602 1.2351
1/12/2021 9:15:00 AM 7.7942 1.1986
1/12/2021 9:30:00 AM 7.798 1.1802
1/12/2021 9:45:00 AM 7.8123 1.1322
1/12/2021 10:00:00 AM 7.8142 1.1342
1/12/2021 10:15:00 AM 7.7434 1.1271
1/12/2021 10:30:00 AM 7.5887 1.1273
1/12/2021 10:45:00 AM 7.5564 1.15
1/12/2021 11:00:00 AM 7.5583 1.1528
1/12/2021 11:15:00 AM 7.5676 1.1379
1/12/2021 11:30:00 AM 7.575 1.1223
1/12/2021 11:45:00 AM 7.5796 1.1999
1/12/2021 12:00:00 PM 7.5908 1.2652
1/12/2021 12:15:00 PM 7.5883 1.2489
1/12/2021 12:30:00 PM 7.5989 1.2521
1/12/2021 12:45:00 PM 7.6323 1.2562
1/12/2021 1:00:00 PM 7.6834 1.2667
1/12/2021 1:15:00 PM 7.7272 1.2502
1/12/2021 1:30:00 PM 7.7634 1.2441
1/12/2021 1:45:00 PM 7.7931 1.2656
1/12/2021 2:00:00 PM 7.8062 1.2647
1/12/2021 2:15:00 PM 7.7642 1.2513
1/12/2021 2:30:00 PM 7.5923 1.247
1/12/2021 2:45:00 PM 7.5414 1.2709
1/12/2021 3:00:00 PM 7.5332 1.3488
1/12/2021 3:15:00 PM 7.5401 1.3461
1/12/2021 3:30:00 PM 7.5468 1.2485
1/12/2021 3:45:00 PM 7.5544 1.2488
1/12/2021 4:00:00 PM 7.5597 1.2355
1/12/2021 4:15:00 PM 7.5714 1.2484
1/12/2021 4:30:00 PM 7.5799 1.221
1/12/2021 4:45:00 PM 7.5917 1.182
1/12/2021 5:00:00 PM 7.6204 1.1888
1/12/2021 5:15:00 PM 7.6504 1.159
1/12/2021 5:30:00 PM 7.7009 1.1711
1/12/2021 5:45:00 PM 7.7392 1.1999
1/12/2021 6:00:00 PM 7.7881 1.2083
1/12/2021 6:15:00 PM 7.7879 1.1748
1/12/2021 6:30:00 PM 7.7812 1.1729
1/12/2021 6:45:00 PM 7.63 1.2479
1/12/2021 7:00:00 PM 7.5442 1.3607
1/12/2021 7:15:00 PM 7.5212 1.2731
1/12/2021 7:30:00 PM 7.5182 1.2217
1/12/2021 7:45:00 PM 7.5224 1.2258
1/12/2021 8:00:00 PM 7.5253 1.3449
1/12/2021 8:15:00 PM 7.5301 1.2483
1/12/2021 8:30:00 PM 7.5426 1.1449
1/12/2021 8:45:00 PM 7.5488 1.1998
1/12/2021 9:00:00 PM 7.5751 1.2401
1/12/2021 9:15:00 PM 7.6171 1.2366
1/12/2021 9:30:00 PM 7.6665 1.2502
1/12/2021 9:45:00 PM 7.7227 1.2652
1/12/2021 10:00:00 PM 7.9446 1.2619
1/12/2021 10:15:00 PM 7.8827 1.2373
1/12/2021 10:30:00 PM 7.7116 1.2287
1/12/2021 10:45:00 PM 7.7173 1.2244
1/12/2021 11:00:00 PM 7.7064 1.2418
1/12/2021 11:15:00 PM 7.5811 1.3298
1/12/2021 11:30:00 PM 7.5175 1.3416
1/12/2021 11:45:00 PM 7.5082 1.3001
1/13/2021 12:00:00 AM 7.5209 1.3164
1/13/2021 12:15:00 AM 7.5263 1.2149
1/13/2021 12:30:00 AM 7.5341 1.1716
1/13/2021 12:45:00 AM 7.5413 1.2509
1/13/2021 1:00:00 AM 7.5535 1.2632
1/13/2021 1:15:00 AM 7.5573 1.1519
1/13/2021 1:30:00 AM 7.5663 1.26
1/13/2021 1:45:00 AM 7.5863 1.356
1/13/2021 2:00:00 AM 7.618 1.2005
1/13/2021 2:15:00 AM 7.6466 1.1792
1/13/2021 2:30:00 AM 7.685 1.2502
1/13/2021 2:45:00 AM 7.7154 1.3
1/13/2021 3:00:00 AM 7.7303 1.2366
1/13/2021 3:15:00 AM 7.5965 1.2459
1/13/2021 3:30:00 AM 7.5271 1.2154
1/13/2021 3:45:00 AM 7.5088 1.4379
1/13/2021 4:00:00 AM 7.5144 1.3735
1/13/2021 4:15:00 AM 7.5199 1.2069
1/13/2021 4:30:00 AM 7.522 1.1292
1/13/2021 4:45:00 AM 7.5298 1.1341
1/13/2021 5:00:00 AM 7.5386 1.1955
1/13/2021 5:15:00 AM 7.5405 1.2329
1/13/2021 5:30:00 AM 7.547 1.1789
1/13/2021 5:45:00 AM 7.5544 1.1997
1/13/2021 6:00:00 AM 7.1399 1.2017
1/13/2021 6:15:00 AM 7.4793 1.1806
1/13/2021 6:30:00 AM 7.634 1.1354
1/13/2021 6:45:00 AM 7.6823 1.131
1/13/2021 7:00:00 AM 7.6926 1.1343
1/13/2021 7:15:00 AM 7.6576 1.1175
1/13/2021 7:30:00 AM 7.5419 1.1242
1/13/2021 7:45:00 AM 7.5072 1.1278
1/13/2021 8:00:00 AM 7.504 1.1243
1/13/2021 8:15:00 AM 7.5122 1.1259
1/13/2021 8:30:00 AM 7.5228 1.1245
1/13/2021 8:45:00 AM 7.5278 1.1999
1/13/2021 9:00:00 AM 7.5338 1.1303
1/13/2021 9:15:00 AM 7.5426 1.1549
1/13/2021 9:30:00 AM 7.554 1.7809
1/13/2021 9:45:00 AM 7.5602 2.9039
1/13/2021 10:00:00 AM 7.5879 1.7567
1/13/2021 10:15:00 AM 7.6318 1.2031
1/13/2021 10:30:00 AM 7.6721 1.156
1/13/2021 10:45:00 AM 7.7101 1.133
1/13/2021 11:00:00 AM 7.7643 1.1422
1/13/2021 11:15:00 AM 7.7472 1.1578
1/13/2021 11:30:00 AM 7.5818 1.1549
1/13/2021 11:45:00 AM 7.532 1.1999
1/13/2021 12:00:00 PM 7.498 1.1531
1/13/2021 12:15:00 PM 7.4998 1.1521
1/13/2021 12:30:00 PM 7.5055 1.1403
1/13/2021 12:45:00 PM 7.5074 1.1494
1/13/2021 1:00:00 PM 7.5111 1.2647
1/13/2021 1:15:00 PM 7.5197 1.5865
1/13/2021 1:30:00 PM 7.5334 1.9803
1/13/2021 1:45:00 PM 7.5599 1.6378
1/13/2021 2:00:00 PM 7.6034 1.2769
1/13/2021 2:15:00 PM 7.6603 1.1751
1/13/2021 2:30:00 PM 7.7186 1.1439
1/13/2021 2:45:00 PM 7.7543 1.1596
1/13/2021 3:00:00 PM 7.7133 1.0804
1/13/2021 3:15:00 PM 7.5641 1.1091
1/13/2021 3:30:00 PM 7.5097 1.0958
1/13/2021 3:45:00 PM 7.4913 1.1594
1/13/2021 4:00:00 PM 7.4912 1.1518
1/13/2021 4:15:00 PM 7.4995 1.1552
1/13/2021 4:30:00 PM 7.5025 1.1506
1/13/2021 4:45:00 PM 7.5035 1.1472
1/13/2021 5:00:00 PM 7.5055 1.1452
1/13/2021 5:15:00 PM 7.5062 1.1223
1/13/2021 5:30:00 PM 7.5169 1.1245
1/13/2021 5:45:00 PM 7.5264 1.1
1/13/2021 6:00:00 PM 7.5648 1.1285
1/13/2021 6:15:00 PM 7.616 1.1397
1/13/2021 6:30:00 PM 7.6754 1.1557
1/13/2021 6:45:00 PM 7.7226 1.1754
1/13/2021 7:00:00 PM 7.7626 1.1593
1/13/2021 7:15:00 PM 7.6131 1.1302
1/13/2021 7:30:00 PM 7.5261 1.2035
1/13/2021 7:45:00 PM 7.5019 1.2808
1/13/2021 8:00:00 PM 7.497 1.1689
1/13/2021 8:15:00 PM 7.5007 1.1515
1/13/2021 8:30:00 PM 7.5026 1.154
1/13/2021 8:45:00 PM 7.5054 1.0999
1/13/2021 9:00:00 PM 7.506 1.1052
1/13/2021 9:15:00 PM 7.5111 1.1641
1/13/2021 9:30:00 PM 7.5262 1.1849
1/13/2021 9:45:00 PM 7.5458 1.2642
1/13/2021 10:00:00 PM 7.5847 1.2576
1/13/2021 10:15:00 PM 7.6397 1.1527
1/13/2021 10:30:00 PM 7.6736 1.2147
1/13/2021 10:45:00 PM 7.7173 1.2017
1/13/2021 11:00:00 PM 7.7558 1.1619
1/13/2021 11:15:00 PM 7.7829 1.1582
1/13/2021 11:30:00 PM 7.7582 1.2351
1/13/2021 11:45:00 PM 7.6482 1.1
1/14/2021 12:00:00 AM 7.4922 1.2843
1/14/2021 12:15:00 AM 7.475 1.185
1/14/2021 12:30:00 AM 7.4727 1.3687
1/14/2021 12:45:00 AM 7.477 1.3469
1/14/2021 1:00:00 AM 7.4802 1.1886
1/14/2021 1:15:00 AM 7.4811 1.1613
1/14/2021 1:30:00 AM 7.4836 1.2989
1/14/2021 1:45:00 AM 7.4886 1.1938
1/14/2021 2:00:00 AM 7.5071 1.1413
1/14/2021 2:15:00 AM 7.5288 1.2236
1/14/2021 2:30:00 AM 7.5638 1.2164
1/14/2021 2:45:00 AM 7.5852 1.3
1/14/2021 3:00:00 AM 7.6915 1.3998
1/14/2021 3:15:00 AM 7.7092 1.2526
1/14/2021 3:30:00 AM 7.7422 1.1391
1/14/2021 3:45:00 AM 7.7816 1.1837
1/14/2021 4:00:00 AM 7.7828 1.2582
1/14/2021 4:15:00 AM 7.5943 1.2384
1/14/2021 4:30:00 AM 7.4962 1.1352
1/14/2021 4:45:00 AM 6.9892 1.2071
1/14/2021 5:00:00 AM 7.2024 1.1453
1/14/2021 5:15:00 AM 7.3808 1.1434
1/14/2021 5:30:00 AM 7.4249 1.1298
1/14/2021 5:45:00 AM 7.434 1.1002
1/14/2021 6:00:00 AM 7.4598 1.1557
1/14/2021 6:15:00 AM 7.4744 1.0929
1/14/2021 6:30:00 AM 7.4874 1.1494
1/14/2021 6:45:00 AM 7.505 1.1468
1/14/2021 7:00:00 AM 7.5279 1.087
1/14/2021 7:15:00 AM 7.5686 1.0813
1/14/2021 7:30:00 AM 7.6268 1.056
1/14/2021 7:45:00 AM 7.6799 1.0422
1/14/2021 8:00:00 AM 7.742 1.0374
1/14/2021 8:15:00 AM 7.7768 1.0247
1/14/2021 8:30:00 AM 7.7772 1.0552
1/14/2021 8:45:00 AM 7.672 1.1002
1/14/2021 9:00:00 AM 7.51 1.0735
1/14/2021 9:15:00 AM 7.4869 1.059
1/14/2021 9:30:00 AM 7.4824 1.0892
1/14/2021 9:45:00 AM 7.4811 1.0578
1/14/2021 10:00:00 AM 7.4781 1.1107
1/14/2021 10:15:00 AM 7.4774 1.125
1/14/2021 10:30:00 AM 7.4772 1.1308
1/14/2021 10:45:00 AM 7.4767 1.1091
1/14/2021 11:00:00 AM 7.4738 1.0898
1/14/2021 11:15:00 AM 7.4694 1.0587
1/14/2021 11:30:00 AM 7.4779 1.0651
1/14/2021 11:45:00 AM 7.4886 1.0997
1/14/2021 12:00:00 PM 7.5408 1.0435
1/14/2021 12:15:00 PM 7.5959 1.0274
1/14/2021 12:30:00 PM 7.6764 1.0202
1/14/2021 12:45:00 PM 7.7476 1.0285
1/14/2021 1:00:00 PM 7.7222 1.039
1/14/2021 1:15:00 PM 7.5517 1.0373
1/14/2021 1:30:00 PM 7.4843 1.0338
1/14/2021 1:45:00 PM 7.4616 1.0329
1/14/2021 2:00:00 PM 7.4518 1.0271
1/14/2021 2:15:00 PM 7.4495 1.0366
1/14/2021 2:30:00 PM 7.4463 1.0333
1/14/2021 2:45:00 PM 7.4426 1.0445
1/14/2021 3:00:00 PM 7.4372 1.025
1/14/2021 3:15:00 PM 7.4354 1.0201
1/14/2021 3:30:00 PM 7.4376 1.0417
1/14/2021 3:45:00 PM 7.4357 1.1864
1/14/2021 4:00:00 PM 7.431 1.4392
1/14/2021 4:15:00 PM 7.4361 1.3785
1/14/2021 4:30:00 PM 7.4591 1.2169
1/14/2021 4:45:00 PM 7.4997 1.1441
1/14/2021 5:00:00 PM 7.5564 1.1656
1/14/2021 5:15:00 PM 7.6285 1.1676
1/14/2021 5:30:00 PM 7.7184 1.1465
1/14/2021 5:45:00 PM 7.7322 1.1
1/14/2021 6:00:00 PM 7.4992 1.0984
1/14/2021 6:15:00 PM 7.4498 1.2722
1/14/2021 6:30:00 PM 7.433 1.2255
1/14/2021 6:45:00 PM 7.4264 1.1814
1/14/2021 7:00:00 PM 7.4239 1.1575
1/14/2021 7:15:00 PM 7.4218 1.1566
1/14/2021 7:30:00 PM 7.4208 1.1539
1/14/2021 7:45:00 PM 7.4239 1.141
1/14/2021 8:00:00 PM 7.4209 1.2919
1/14/2021 8:15:00 PM 7.4103 1.2775
1/14/2021 8:30:00 PM 7.3996 1.2558
1/14/2021 8:45:00 PM 7.3934 1.2002
1/14/2021 9:00:00 PM 7.3979 1.1744
1/14/2021 9:15:00 PM 7.3975 1.2346
1/14/2021 9:30:00 PM 7.4278 1.2202
1/14/2021 9:45:00 PM 7.4687 1.1377
1/14/2021 10:00:00 PM 7.5336 1.1286
1/14/2021 10:15:00 PM 7.5938 1.1862
1/14/2021 10:30:00 PM 7.6454 1.2242
1/14/2021 10:45:00 PM 7.6711 1.3379
1/14/2021 11:00:00 PM 7.5036 1.388
1/14/2021 11:15:00 PM 7.4249 1.4513
1/14/2021 11:30:00 PM 7.3957 1.3358
1/14/2021 11:45:00 PM 7.3836 1.2998
1/15/2021 12:00:00 AM 7.3853 1.2152
1/15/2021 12:15:00 AM 7.386 1.2199
1/15/2021 12:30:00 AM 7.3817 1.1942
1/15/2021 12:45:00 AM 7.3788 1.4974
1/15/2021 1:00:00 AM 7.379 1.3561
1/15/2021 1:15:00 AM 7.3788 1.5459
1/15/2021 1:30:00 AM 7.381 1.3899
1/15/2021 1:45:00 AM 7.3818 1.4551
1/15/2021 2:00:00 AM 7.383 1.3753
1/15/2021 2:15:00 AM 7.3849 1.1799
1/15/2021 2:30:00 AM 7.4092 1.1706
1/15/2021 2:45:00 AM 7.427 1.2001
1/15/2021 3:00:00 AM 7.507 1.1675
1/15/2021 3:15:00 AM 7.5865 1.1695
1/15/2021 3:30:00 AM 7.6742 1.219
1/15/2021 3:45:00 AM 7.6308 1.153
1/15/2021 4:00:00 AM 7.4675 1.1366
1/15/2021 4:15:00 AM 7.4061 1.1365
1/15/2021 4:30:00 AM 7.3873 1.1369
1/15/2021 4:45:00 AM 7.3765 1.1704
1/15/2021 5:00:00 AM 7.3713 1.2466
1/15/2021 5:15:00 AM 7.3687 1.1867
1/15/2021 5:30:00 AM 7.3763 1.1379
1/15/2021 5:45:00 AM 7.3794 1.1997
1/15/2021 6:00:00 AM 6.9614 1.2033
1/15/2021 6:15:00 AM 7.2367 1.1416
1/15/2021 6:30:00 AM 7.3143 1.1471
1/15/2021 6:45:00 AM 7.3471 1.131
1/15/2021 7:00:00 AM 7.4 1.1604
1/15/2021 7:15:00 AM 7.4771 1.1455
1/15/2021 7:30:00 AM 7.5805 1.1461
1/15/2021 7:45:00 AM 7.6851 1.1481
1/15/2021 8:00:00 AM 7.7789 1.1936
1/15/2021 8:15:00 AM 7.7637 1.1466
1/15/2021 8:30:00 AM 7.5369 1.1414
1/15/2021 8:45:00 AM 7.4704 1.1999
1/15/2021 9:00:00 AM 7.4071 1.1486
1/15/2021 9:15:00 AM 7.3962 1.143
1/15/2021 9:30:00 AM 7.3955 1.1596
1/15/2021 9:45:00 AM 7.3933 1.1522
1/15/2021 10:00:00 AM 7.3923 1.1484
1/15/2021 10:15:00 AM 7.3938 1.1031
1/15/2021 10:30:00 AM 7.3923 1.0703
1/15/2021 10:45:00 AM 7.3921 1.0592
1/15/2021 11:00:00 AM 7.3912 1.095
1/15/2021 11:15:00 AM 7.3971 1.136
1/15/2021 11:30:00 AM 7.397 1.0822
1/15/2021 11:45:00 AM 7.3934 1.1002
1/15/2021 12:00:00 PM 7.3914 1.0784
1/15/2021 12:15:00 PM 7.3906 1.1562
1/15/2021 12:30:00 PM 7.3908 1.1308
1/15/2021 12:45:00 PM 7.3907 1.2116
1/15/2021 1:00:00 PM 7.3975 1.3364
1/15/2021 1:15:00 PM 7.4254 1.2433
1/15/2021 1:30:00 PM 7.4773 1.2553
1/15/2021 1:45:00 PM 7.576 1.2554
1/15/2021 2:00:00 PM 7.6736 1.2404
1/15/2021 2:15:00 PM 7.7561 1.2309
1/15/2021 2:30:00 PM 7.6916 1.2283
1/15/2021 2:45:00 PM 7.5178 1.2248
1/15/2021 3:00:00 PM 7.4378 1.2349
1/15/2021 3:15:00 PM 7.4103 1.2254
1/15/2021 3:30:00 PM 7.3982 1.2325
1/15/2021 3:45:00 PM 7.3949 1.2292
1/15/2021 4:00:00 PM 7.3915 1.2324
1/15/2021 4:15:00 PM 7.3914 1.2309
1/15/2021 4:30:00 PM 7.3911 1.2402
1/15/2021 4:45:00 PM 7.3933 1.2493
1/15/2021 5:00:00 PM 7.3962 1.2523
1/15/2021 5:15:00 PM 7.3953 1.2487
1/15/2021 5:30:00 PM 7.3963 1.2431
1/15/2021 5:45:00 PM 7.3892 1.2001
1/15/2021 6:00:00 PM 7.3936 1.1547
1/15/2021 6:15:00 PM 7.3921 1.1543
1/15/2021 6:30:00 PM 7.3907 1.1575
1/15/2021 6:45:00 PM 7.3861 1.1383
1/15/2021 7:00:00 PM 7.3842 1.162
1/15/2021 7:15:00 PM 7.3834 1.2344
1/15/2021 7:30:00 PM 7.383 1.2271
1/15/2021 7:45:00 PM 7.3808 1.3229
1/15/2021 8:00:00 PM 7.3864 1.2799
1/15/2021 8:15:00 PM 7.4087 1.4096
1/15/2021 8:30:00 PM 7.4599 1.4852
1/15/2021 8:45:00 PM 7.5082 1.4998
1/15/2021 9:00:00 PM 7.661 1.5024
1/15/2021 9:15:00 PM 7.529 1.4658
1/15/2021 9:30:00 PM 7.4212 1.3535
1/15/2021 9:45:00 PM 7.3743 1.3285
1/15/2021 10:00:00 PM 7.3649 1.3349
1/15/2021 10:15:00 PM 7.3607 1.3185
1/15/2021 10:30:00 PM 7.3526 1.3703
1/15/2021 10:45:00 PM 7.354 1.3688
1/15/2021 11:00:00 PM 7.353 1.3401
1/15/2021 11:15:00 PM 7.3524 1.3322
1/15/2021 11:30:00 PM 7.3541 1.4487
1/15/2021 11:45:00 PM 7.35 1.4999
1/16/2021 12:00:00 AM 7.355 1.5265
1/16/2021 12:15:00 AM 7.3496 1.6524
1/16/2021 12:30:00 AM 7.3484 1.6291
1/16/2021 12:45:00 AM 7.3618 1.7038
1/16/2021 1:00:00 AM 7.4092 1.9242
1/16/2021 1:15:00 AM 7.4804 2.0433
1/16/2021 1:30:00 AM 7.5832 2.184
1/16/2021 1:45:00 AM 7.6836 2.4202
1/16/2021 2:00:00 AM 7.7325 2.6386
1/16/2021 2:15:00 AM 7.5615 2.7653
1/16/2021 2:30:00 AM 7.4123 3.0589
1/16/2021 2:45:00 AM 7.3836 3.2
1/16/2021 3:00:00 AM 7.3494 3.9232
1/16/2021 3:15:00 AM 7.3408 4.8657
1/16/2021 3:30:00 AM 7.3393 5.2476
1/16/2021 3:45:00 AM 7.2321 5.0261
1/16/2021 4:00:00 AM 7.2684 5.6529
1/16/2021 4:15:00 AM 7.3197 6.2031
1/16/2021 4:30:00 AM 7.3384 6.5732
1/16/2021 4:45:00 AM 7.3446 6.6746
1/16/2021 5:00:00 AM 7.3436 6.3967
1/16/2021 5:15:00 AM 7.3622 6.3827
1/16/2021 5:30:00 AM 7.4028 6.5286
1/16/2021 5:45:00 AM 7.427 6.6001
1/16/2021 6:00:00 AM 7.6285 6.6174
1/16/2021 6:15:00 AM 7.7631 6.6993
1/16/2021 6:30:00 AM 7.8255 6.1889
1/16/2021 6:45:00 AM 7.6742 6.2263
1/16/2021 7:00:00 AM 7.4704 6.2503
1/16/2021 7:15:00 AM 7.3874 5.8138
1/16/2021 7:30:00 AM 7.362 5.0619
1/16/2021 7:45:00 AM 7.3527 5.0116
1/16/2021 8:00:00 AM 7.3479 5.3723
1/16/2021 8:15:00 AM 7.3441 4.3492
1/16/2021 8:30:00 AM 7.339 4.0811
1/16/2021 8:45:00 AM 7.3332 4.0999
1/16/2021 9:00:00 AM 7.3347 3.6107
1/16/2021 9:15:00 AM 7.3401 3.1759
1/16/2021 9:30:00 AM 7.3428 3.0415
1/16/2021 9:45:00 AM 7.3436 3.0484
1/16/2021 10:00:00 AM 7.3447 2.9379
1/16/2021 10:15:00 AM 7.349 2.7384
1/16/2021 10:30:00 AM 7.3546 2.5409
1/16/2021 10:45:00 AM 7.3595 2.4505
1/16/2021 11:00:00 AM 7.3629 2.5072
1/16/2021 11:15:00 AM 7.3832 2.4894
1/16/2021 11:30:00 AM 7.4302 2.4393
1/16/2021 11:45:00 AM 7.4704 2.4998
1/16/2021 12:00:00 PM 7.657 2.4557
1/16/2021 12:15:00 PM 7.7656 2.3704
1/16/2021 12:30:00 PM 7.7752 2.3822
1/16/2021 12:45:00 PM 7.5875 2.459
1/16/2021 1:00:00 PM 7.4365 2.5336
1/16/2021 1:15:00 PM 7.3798 2.5564
1/16/2021 1:30:00 PM 7.3578 2.596
1/16/2021 1:45:00 PM 7.349 2.6881
1/16/2021 2:00:00 PM 7.3443 2.7734
1/16/2021 2:15:00 PM 7.3434 3.0028
1/16/2021 2:30:00 PM 7.3434 3.2
1/16/2021 2:45:00 PM 7.3432 3.242
1/16/2021 3:00:00 PM 7.3436 3.3023
1/16/2021 3:15:00 PM 7.3437 3.3386
1/16/2021 3:30:00 PM 7.3439 3.3773
1/16/2021 3:45:00 PM 7.3435 3.3965
1/16/2021 4:00:00 PM 7.3466 3.4475
1/16/2021 4:15:00 PM 7.3451 3.4697
1/16/2021 4:30:00 PM 7.3457 3.5157
1/16/2021 4:45:00 PM 7.3442 3.6726
1/16/2021 5:00:00 PM 7.3472 3.5821
1/16/2021 5:15:00 PM 7.3462 3.465
1/16/2021 5:30:00 PM 7.3457 3.4449
1/16/2021 5:45:00 PM 7.35 3.3998
1/16/2021 6:00:00 PM 7.3485 3.3743
1/16/2021 6:15:00 PM 7.3673 3.359
1/16/2021 6:30:00 PM 7.417 3.3456
1/16/2021 6:45:00 PM 7.5215 3.233
1/16/2021 7:00:00 PM 7.6669 3.1325
1/16/2021 7:15:00 PM 7.7768 3.1792
1/16/2021 7:30:00 PM 7.831 3.212
1/16/2021 7:45:00 PM 7.7101 3.1328
1/16/2021 8:00:00 PM 7.4969 3.3332
1/16/2021 8:15:00 PM 7.395 3.3221
1/16/2021 8:30:00 PM 7.3666 3.1666
1/16/2021 8:45:00 PM 7.3556 3.1003
1/16/2021 9:00:00 PM 7.3482 3.0673
1/16/2021 9:15:00 PM 7.3454 3.0318
1/16/2021 9:30:00 PM 7.3427 3.0832
1/16/2021 9:45:00 PM 7.3411 3.0876
1/16/2021 10:00:00 PM 7.3379 2.8848
1/16/2021 10:15:00 PM 7.3339 2.8037
1/16/2021 10:30:00 PM 7.3351 2.7123
1/16/2021 10:45:00 PM 7.3375 2.7275
1/16/2021 11:00:00 PM 7.335 2.6959
1/16/2021 11:15:00 PM 7.3373 2.5495
1/16/2021 11:30:00 PM 7.3375 2.5268
1/16/2021 11:45:00 PM 7.3402 2.4999
1/17/2021 12:00:00 AM 7.3359 2.4606
1/17/2021 12:15:00 AM 7.3366 2.4399
1/17/2021 12:30:00 AM 7.3339 2.4774
1/17/2021 12:45:00 AM 7.3362 2.4528
1/17/2021 1:00:00 AM 7.335 2.4123
1/17/2021 1:15:00 AM 7.3342 2.403
1/17/2021 1:30:00 AM 7.3324 2.3725
1/17/2021 1:45:00 AM 7.3341 2.4199
1/17/2021 2:00:00 AM 7.3327 2.3328
1/17/2021 2:15:00 AM 7.3307 2.2821
1/17/2021 2:30:00 AM 7.329 2.2997
1/17/2021 2:45:00 AM 7.329 2.2999
1/17/2021 3:00:00 AM 7.3337 3.113
1/17/2021 3:15:00 AM 7.3348 3.4248
1/17/2021 3:30:00 AM 7.3345 3.3042
1/17/2021 3:45:00 AM 7.3333 3.0335
1/17/2021 4:00:00 AM 7.3354 2.8377
1/17/2021 4:15:00 AM 7.3357 2.6846
1/17/2021 4:30:00 AM 7.3385 2.751
1/17/2021 4:45:00 AM 7.2277 2.7917
1/17/2021 5:00:00 AM 7.158 2.7473
1/17/2021 5:15:00 AM 7.263 2.6452
1/17/2021 5:30:00 AM 7.3039 2.4287
1/17/2021 5:45:00 AM 7.315 2.3999
1/17/2021 6:00:00 AM 7.3312 2.2546
1/17/2021 6:15:00 AM 7.337 2.1731
1/17/2021 6:30:00 AM 7.3393 2.1522
1/17/2021 6:45:00 AM 7.3394 2.2124
1/17/2021 7:00:00 AM 7.3439 2.239
1/17/2021 7:15:00 AM 7.3444 2.1407
1/17/2021 7:30:00 AM 7.3461 2.0497
1/17/2021 7:45:00 AM 7.3487 2.0303
1/17/2021 8:00:00 AM 7.3476 1.9406
1/17/2021 8:15:00 AM 7.3468 1.8889
1/17/2021 8:30:00 AM 7.3467 1.8631
1/17/2021 8:45:00 AM 7.3458 2.0999
1/17/2021 9:00:00 AM 7.3473 2.9978
1/17/2021 9:15:00 AM 7.3471 2.5691
1/17/2021 9:30:00 AM 7.3498 2.1546
1/17/2021 9:45:00 AM 7.3522 2.0249
1/17/2021 10:00:00 AM 7.3507 1.9485
1/17/2021 10:15:00 AM 7.3528 1.9504
1/17/2021 10:30:00 AM 7.354 2.1776
1/17/2021 10:45:00 AM 7.3527 2.3673
1/17/2021 11:00:00 AM 7.3524 2.6507
1/17/2021 11:15:00 AM 7.3534 2.6819
1/17/2021 11:30:00 AM 7.3563 2.493
1/17/2021 11:45:00 AM 7.3556 2.4998
1/17/2021 12:00:00 PM 7.3596 2.2634
1/17/2021 12:15:00 PM 7.3615 2.1949
1/17/2021 12:30:00 PM 7.3584 2.5328
1/17/2021 12:45:00 PM 7.3593 2.1395
1/17/2021 1:00:00 PM 7.3624 1.8936
1/17/2021 1:15:00 PM 7.3626 1.7585
1/17/2021 1:30:00 PM 7.3644 1.7127
1/17/2021 1:45:00 PM 7.3663 1.6371
1/17/2021 2:00:00 PM 7.3684 1.6527
1/17/2021 2:15:00 PM 7.3671 1.6537
1/17/2021 2:30:00 PM 7.3657 1.6672
1/17/2021 2:45:00 PM 7.3699 1.69
1/17/2021 3:00:00 PM 7.3715 1.7124
1/17/2021 3:15:00 PM 7.3723 1.6297
1/17/2021 3:30:00 PM 7.3732 1.6423
1/17/2021 3:45:00 PM 7.3712 1.5509
1/17/2021 4:00:00 PM 7.373 1.5563
1/17/2021 4:15:00 PM 7.372 1.4878
1/17/2021 4:30:00 PM 7.3671 1.467
1/17/2021 4:45:00 PM 7.3711 1.4536
1/17/2021 5:00:00 PM 7.3696 1.4832
1/17/2021 5:15:00 PM 7.369 1.4363
1/17/2021 5:30:00 PM 7.3673 1.4647
1/17/2021 5:45:00 PM 7.364 1.3994
1/17/2021 6:00:00 PM 7.3663 1.3968
1/17/2021 6:15:00 PM 7.3672 1.3382
1/17/2021 6:30:00 PM 7.3657 1.3237
1/17/2021 6:45:00 PM 7.3626 1.3191
1/17/2021 7:00:00 PM 7.3607 1.3287
1/17/2021 7:15:00 PM 7.3617 1.3264
1/17/2021 7:30:00 PM 7.3596 1.3264
1/17/2021 7:45:00 PM 7.3575 1.3233
1/17/2021 8:00:00 PM 7.3568 1.3724
1/17/2021 8:15:00 PM 7.3528 1.4596
1/17/2021 8:30:00 PM 7.3504 1.5259
1/17/2021 8:45:00 PM 7.3528 1.5997
1/17/2021 9:00:00 PM 7.3558 1.5276
1/17/2021 9:15:00 PM 7.3523 1.5345
1/17/2021 9:30:00 PM 7.3551 1.4309
1/17/2021 9:45:00 PM 7.3507 1.7304
1/17/2021 10:00:00 PM 7.3479 1.6825
1/17/2021 10:15:00 PM 7.3424 1.6372
1/17/2021 10:30:00 PM 7.3422 1.6567
1/17/2021 10:45:00 PM 7.342 1.6016
1/17/2021 11:00:00 PM 7.3382 1.5053
1/17/2021 11:15:00 PM 7.3396 1.4538
1/17/2021 11:30:00 PM 7.3383 1.4521
1/17/2021 11:45:00 PM 7.3402 1.4995
1/18/2021 12:00:00 AM 7.3431 1.5788
1/18/2021 12:15:00 AM 7.3421 1.487
1/18/2021 12:30:00 AM 7.3426 1.3605
1/18/2021 12:45:00 AM 7.3434 1.3277
1/18/2021 1:00:00 AM 7.3402 1.343
1/18/2021 1:15:00 AM 7.341 1.3276
1/18/2021 1:30:00 AM 7.3367 1.3543
1/18/2021 1:45:00 AM 7.3394 1.3294
1/18/2021 2:00:00 AM 7.3402 1.3367
1/18/2021 2:15:00 AM 7.3392 1.3319
1/18/2021 2:30:00 AM 7.3405 1.3498
1/18/2021 2:45:00 AM 7.3304 1.3001
1/18/2021 3:00:00 AM 7.3404 1.4338
1/18/2021 3:15:00 AM 7.3383 1.4602
1/18/2021 3:30:00 AM 7.3399 1.4437
1/18/2021 3:45:00 AM 7.3386 1.4442
1/18/2021 4:00:00 AM 7.3376 1.3592
1/18/2021 4:15:00 AM 7.3415 1.3565
1/18/2021 4:30:00 AM 7.3408 1.3202
1/18/2021 4:45:00 AM 7.3419 1.349
1/18/2021 5:00:00 AM 7.3431 1.3262
1/18/2021 5:15:00 AM 7.3444 1.3691
1/18/2021 5:30:00 AM 7.3409 1.3628
1/18/2021 5:45:00 AM 7.3388 1.3001
1/18/2021 6:00:00 AM 7.3414 1.3027
1/18/2021 6:15:00 AM 7.3385 1.3615
1/18/2021 6:30:00 AM 7.3393 1.3456
1/18/2021 6:45:00 AM 7.3418 1.3272
1/18/2021 7:00:00 AM 7.3411 1.4144
1/18/2021 7:15:00 AM 7.3389 1.3236
1/18/2021 7:30:00 AM 7.3377 1.294
1/18/2021 7:45:00 AM 7.3335 1.2934
1/18/2021 8:00:00 AM 7.3338 1.4362
1/18/2021 8:15:00 AM 7.3399 1.4735
1/18/2021 8:30:00 AM 7.3397 1.3016
1/18/2021 8:45:00 AM 7.3416 1.3001
1/18/2021 9:00:00 AM 7.3397 1.244
1/18/2021 9:15:00 AM 7.3415 1.2312
1/18/2021 9:30:00 AM 7.3425 1.2355
1/18/2021 9:45:00 AM 7.3431 1.2263
1/18/2021 10:00:00 AM 7.3467 1.2436
1/18/2021 10:15:00 AM 7.3474 1.252
1/18/2021 10:30:00 AM 7.3473 1.2452
1/18/2021 10:45:00 AM 7.3403 1.3158
1/18/2021 11:00:00 AM 7.295 1.3042
1/18/2021 11:15:00 AM 7.3277 1.2264
1/18/2021 11:30:00 AM 7.347 1.2298
1/18/2021 11:45:00 AM 7.3556 1.2998
1/18/2021 12:00:00 PM 7.357 1.2295
1/18/2021 12:15:00 PM 7.3576 1.2515
1/18/2021 12:30:00 PM 7.3601 1.2439
1/18/2021 12:45:00 PM 7.361 1.247
1/18/2021 1:00:00 PM 7.3623 1.2383
1/18/2021 1:15:00 PM 7.3642 1.3533
1/18/2021 1:30:00 PM 7.3627 1.3533
1/18/2021 1:45:00 PM 7.3661 1.2378
1/18/2021 2:00:00 PM 7.3652 1.2356
1/18/2021 2:15:00 PM 7.3676 1.2616
1/18/2021 2:30:00 PM 7.369 1.2466
1/18/2021 2:45:00 PM 7.3682 1.2441
1/18/2021 3:00:00 PM 7.3683 1.2351
1/18/2021 3:15:00 PM 7.3717 1.1702
1/18/2021 3:30:00 PM 7.373 1.1797
1/18/2021 3:45:00 PM 7.3728 1.1287
1/18/2021 4:00:00 PM 7.3723 1.1921
1/18/2021 4:15:00 PM 7.3767 1.2544
1/18/2021 4:30:00 PM 7.3766 1.2591
1/18/2021 4:45:00 PM 7.3767 1.2461
1/18/2021 5:00:00 PM 7.3772 1.2377
1/18/2021 5:15:00 PM 7.3771 1.2516
1/18/2021 5:30:00 PM 7.3774 1.2444
1/18/2021 5:45:00 PM 7.378 1.3
1/18/2021 6:00:00 PM 7.3755 1.2467
1/18/2021 6:15:00 PM 7.3763 1.2378
1/18/2021 6:30:00 PM 7.3737 1.2494
1/18/2021 6:45:00 PM 7.3718 1.2401
1/18/2021 7:00:00 PM 7.3675 1.3655
1/18/2021 7:15:00 PM 7.3674 1.3409
1/18/2021 7:30:00 PM 7.359 1.2469
1/18/2021 7:45:00 PM 7.3586 1.2303
1/18/2021 8:00:00 PM 7.3582 1.2478
1/18/2021 8:15:00 PM 7.3585 1.223
1/18/2021 8:30:00 PM 7.3527 1.2157
1/18/2021 8:45:00 PM 7.35 1.2999
1/18/2021 9:00:00 PM 7.3569 1.2437
1/18/2021 9:15:00 PM 7.3561 1.2416
1/18/2021 9:30:00 PM 7.3553 1.1668
1/18/2021 9:45:00 PM 7.3534 1.2068
1/18/2021 10:00:00 PM 7.3538 1.2304
1/18/2021 10:15:00 PM 7.352 1.2464
1/18/2021 10:30:00 PM 7.3489 1.2441
1/18/2021 10:45:00 PM 7.3501 1.2234
1/18/2021 11:00:00 PM 7.3492 1.2335
1/18/2021 11:15:00 PM 7.3477 1.2453
1/18/2021 11:30:00 PM 7.3462 1.2487
1/18/2021 11:45:00 PM 7.3444 1.2
1/19/2021 12:00:00 AM 7.3502 1.2531
1/19/2021 12:15:00 AM 7.3496 1.2437
1/19/2021 12:30:00 AM 7.3446 1.2496
1/19/2021 12:45:00 AM 7.3441 1.2378
1/19/2021 1:00:00 AM 7.3464 1.2344
1/19/2021 1:15:00 AM 7.3486 1.2398
1/19/2021 1:30:00 AM 7.3477 1.2497
1/19/2021 1:45:00 AM 7.345 1.2739
1/19/2021 2:00:00 AM 7.3483 1.2802
1/19/2021 2:15:00 AM 7.3475 1.2489
1/19/2021 2:30:00 AM 7.349 1.2538
1/19/2021 2:45:00 AM 7.3472 1.2999
1/19/2021 3:00:00 AM 7.3387 1.2452
1/19/2021 3:15:00 AM 7.3376 1.2803
1/19/2021 3:30:00 AM 7.3391 1.2495
1/19/2021 3:45:00 AM 7.3412 1.2444
1/19/2021 4:00:00 AM 7.3346 1.2601
1/19/2021 4:15:00 AM 7.1813 1.2796
1/19/2021 4:30:00 AM 7.1501 1.2181
1/19/2021 4:45:00 AM 7.2631 1.1815
1/19/2021 5:00:00 AM 7.2981 1.1797
1/19/2021 5:15:00 AM 7.3179 1.2306
1/19/2021 5:30:00 AM 7.3306 1.2306
1/19/2021 5:45:00 AM 7.3346 1.2001
1/19/2021 6:00:00 AM 7.334 1.1363
1/19/2021 6:15:00 AM 7.3307 1.1312
1/19/2021 6:30:00 AM 7.3403 1.1501
1/19/2021 6:45:00 AM 7.341 1.2672
1/19/2021 7:00:00 AM 7.3362 1.3364
1/19/2021 7:15:00 AM 7.3405 1.326
1/19/2021 7:30:00 AM 7.3393 1.3403
1/19/2021 7:45:00 AM 7.3425 1.2303
1/19/2021 8:00:00 AM 7.3409 1.2217
1/19/2021 8:15:00 AM 7.3373 1.2381
1/19/2021 8:30:00 AM 7.3343 1.2327
1/19/2021 8:45:00 AM 7.3402 1.2
1/19/2021 9:00:00 AM 7.34 1.2334
1/19/2021 9:15:00 AM 7.3329 1.2436
1/19/2021 9:30:00 AM 7.3373 1.2441
1/19/2021 9:45:00 AM 7.3371 1.3145
1/19/2021 10:00:00 AM 7.3409 1.3305
1/19/2021 10:15:00 AM 7.342 1.3534
1/19/2021 10:30:00 AM 7.3429 1.3124
1/19/2021 10:45:00 AM 7.3448 1.2415
1/19/2021 11:00:00 AM 7.347 1.2424
1/19/2021 11:15:00 AM 7.3451 1.227
1/19/2021 11:30:00 AM 7.3387 1.2365
1/19/2021 11:45:00 AM 7.3346 1.2999
1/19/2021 12:00:00 PM 7.3419 1.2461
1/19/2021 12:15:00 PM 7.3437 1.2504
1/19/2021 12:30:00 PM 7.3425 1.328
1/19/2021 12:45:00 PM 7.3434 1.4389
1/19/2021 1:00:00 PM 7.3491 1.5008
1/19/2021 1:15:00 PM 7.349 1.6739
1/19/2021 1:30:00 PM 7.3446 1.6013
1/19/2021 1:45:00 PM 7.3505 1.5439
1/19/2021 2:00:00 PM 7.3528 1.7332
1/19/2021 2:15:00 PM 7.3486 2.0656
1/19/2021 2:30:00 PM 7.3457 2.7365
1/19/2021 2:45:00 PM 7.3451 3.0775
1/19/2021 3:00:00 PM 7.3519 3.1152
1/19/2021 3:15:00 PM 7.3545 2.3625
1/19/2021 3:30:00 PM 7.354 1.9704
1/19/2021 3:45:00 PM 7.3638 1.6933
1/19/2021 4:00:00 PM 7.3647 1.6304
1/19/2021 4:15:00 PM 7.361 1.5319
1/19/2021 4:30:00 PM 7.3616 1.4447
1/19/2021 4:45:00 PM 7.3604 1.3486
1/19/2021 5:00:00 PM 7.3609 1.2686
1/19/2021 5:15:00 PM 7.3635 1.2416
1/19/2021 5:30:00 PM 7.3648 1.2372
1/19/2021 5:45:00 PM 7.3668 1.2999
1/19/2021 6:00:00 PM 7.3512 1.2468
1/19/2021 6:15:00 PM 7.3537 1.2411
1/19/2021 6:30:00 PM 7.3539 1.1813
1/19/2021 6:45:00 PM 7.3577 1.1894
1/19/2021 7:00:00 PM 7.3575 1.238
1/19/2021 7:15:00 PM 7.3593 1.2452
1/19/2021 7:30:00 PM 7.359 1.2947
1/19/2021 7:45:00 PM 7.3573 1.2432
1/19/2021 8:00:00 PM 7.3611 1.2451
1/19/2021 8:15:00 PM 7.3546 1.3569
1/19/2021 8:30:00 PM 7.3583 1.7516
1/19/2021 8:45:00 PM 7.357 1.8
1/19/2021 9:00:00 PM 7.3503 1.3857
1/19/2021 9:15:00 PM 7.3485 1.3046
1/19/2021 9:30:00 PM 7.3397 1.2399
1/19/2021 9:45:00 PM 7.3478 1.4565
1/19/2021 10:00:00 PM 7.3579 1.355
1/19/2021 10:15:00 PM 7.3545 1.4687
1/19/2021 10:30:00 PM 7.3529 1.7175
1/19/2021 10:45:00 PM 7.3505 2.1955
1/19/2021 11:00:00 PM 7.3476 3.0359
1/19/2021 11:15:00 PM 7.3483 2.4459
1/19/2021 11:30:00 PM 7.3485 2.4663
1/19/2021 11:45:00 PM 7.3542 2.1003
1/20/2021 12:00:00 AM 7.3482 1.3474
1/20/2021 12:15:00 AM 7.3479 1.2377
1/20/2021 12:30:00 AM 7.3502 1.2482
1/20/2021 12:45:00 AM 7.3483 1.2079
1/20/2021 1:00:00 AM 7.3442 1.1481
1/20/2021 1:15:00 AM 7.3441 1.202
1/20/2021 1:30:00 AM 7.3425 1.2203
1/20/2021 1:45:00 AM 7.3408 1.2919
1/20/2021 2:00:00 AM 7.3407 2.8477
1/20/2021 2:15:00 AM 7.3436 2.0347
1/20/2021 2:30:00 AM 7.3434 1.4845
1/20/2021 2:45:00 AM 7.3444 1.3001
1/20/2021 3:00:00 AM 7.3416 1.149
1/20/2021 3:15:00 AM 7.3401 1.2162
1/20/2021 3:30:00 AM 7.3405 1.2469
1/20/2021 3:45:00 AM 7.3391 1.5232
1/20/2021 4:00:00 AM 7.3382 1.2948
1/20/2021 4:15:00 AM 7.3381 1.3062
1/20/2021 4:30:00 AM 7.3378 1.2143
1/20/2021 4:45:00 AM 7.339 1.1722
1/20/2021 5:00:00 AM 7.3393 1.4053
1/20/2021 5:15:00 AM 7.3373 1.2992
1/20/2021 5:30:00 AM 7.3358 1.1454
1/20/2021 5:45:00 AM 7.336 1.1999
1/20/2021 6:00:00 AM 6.9158 1.2022
1/20/2021 6:15:00 AM 7.1626 1.163
1/20/2021 6:30:00 AM 7.247 1.1342
1/20/2021 6:45:00 AM 7.2775 1.1269
1/20/2021 7:00:00 AM 7.281 1.1449
1/20/2021 7:15:00 AM 7.2904 1.1478
1/20/2021 7:30:00 AM 7.2984 1.1225
1/20/2021 7:45:00 AM 7.2935 1.1315
1/20/2021 8:00:00 AM 7.3122 1.1479
1/20/2021 8:15:00 AM 7.3229 1.1478
1/20/2021 8:30:00 AM 7.3291 1.1512
1/20/2021 8:45:00 AM 7.3346 1.2
1/20/2021 9:00:00 AM 7.3337 1.4715
1/20/2021 9:15:00 AM 7.3362 1.4245
1/20/2021 9:30:00 AM 7.3391 1.3778
1/20/2021 9:45:00 AM 7.3458 1.3296
1/20/2021 10:00:00 AM 7.3424 1.3323
1/20/2021 10:15:00 AM 7.3375 1.4838
1/20/2021 10:30:00 AM 7.3463 1.4243
1/20/2021 10:45:00 AM 7.3567 1.4666
1/20/2021 11:00:00 AM 7.3582 1.4622
1/20/2021 11:15:00 AM 7.3616 1.5106
1/20/2021 11:30:00 AM 7.3678 1.4835
1/20/2021 11:45:00 AM 7.3738 1.4999
1/20/2021 12:00:00 PM 7.3749 1.5345
1/20/2021 12:15:00 PM 7.372 1.638
1/20/2021 12:30:00 PM 7.3771 1.5417
1/20/2021 12:45:00 PM 7.3818 1.4924
1/20/2021 1:00:00 PM 7.3826 1.5277
1/20/2021 1:15:00 PM 7.3899 1.6356
1/20/2021 1:30:00 PM 7.3804 1.7634
1/20/2021 1:45:00 PM 7.387 1.7896
1/20/2021 2:00:00 PM 7.3939 1.7831
1/20/2021 2:15:00 PM 7.3949 1.695
1/20/2021 2:30:00 PM 7.3918 1.6526
1/20/2021 2:45:00 PM 7.3895 1.6772
1/20/2021 3:00:00 PM 7.3916 1.7726
1/20/2021 3:15:00 PM 7.393 1.8246
1/20/2021 3:30:00 PM 7.4008 1.6789
1/20/2021 3:45:00 PM 7.4016 1.6208
1/20/2021 4:00:00 PM 7.4052 1.4969
1/20/2021 4:15:00 PM 7.4014 1.3921
1/20/2021 4:30:00 PM 7.4 1.3505
1/20/2021 4:45:00 PM 7.4031 1.3026
1/20/2021 5:00:00 PM 7.3984 1.3302
1/20/2021 5:15:00 PM 7.4039 1.3303
1/20/2021 5:30:00 PM 7.4048 1.2727
1/20/2021 5:45:00 PM 7.4088 1.2998
1/20/2021 6:00:00 PM 7.4088 1.2478
1/20/2021 6:15:00 PM 7.4058 1.1764
1/20/2021 6:30:00 PM 7.406 1.1711
1/20/2021 6:45:00 PM 7.402 1.1874
1/20/2021 7:00:00 PM 7.4018 1.1725
1/20/2021 7:15:00 PM 7.4022 1.1469
1/20/2021 7:30:00 PM 7.3959 1.1841
1/20/2021 7:45:00 PM 7.3972 1.5072
1/20/2021 8:00:00 PM 7.3944 1.5188
1/20/2021 8:15:00 PM 7.3929 1.3126
1/20/2021 8:30:00 PM 7.3964 1.3292
1/20/2021 8:45:00 PM 7.399 1.3999
1/20/2021 9:00:00 PM 7.3887 1.249
1/20/2021 9:15:00 PM 7.3916 1.2351
1/20/2021 9:30:00 PM 7.3957 1.183
1/20/2021 9:45:00 PM 7.3828 1.3257
1/20/2021 10:00:00 PM 7.3905 1.5111
1/20/2021 10:15:00 PM 7.3871 1.4071
1/20/2021 10:30:00 PM 7.3852 1.3649
1/20/2021 10:45:00 PM 7.383 1.4193
1/20/2021 11:00:00 PM 7.3856 1.2443
1/20/2021 11:15:00 PM 7.3841 1.2484
1/20/2021 11:30:00 PM 7.3801 1.2374
1/20/2021 11:45:00 PM 7.3794 1.2001
1/21/2021 12:00:00 AM 7.3806 1.2266
1/21/2021 12:15:00 AM 7.3783 1.2258
1/21/2021 12:30:00 AM 7.3788 1.2431
1/21/2021 12:45:00 AM 7.3811 1.2409
1/21/2021 1:00:00 AM 7.3817 1.2087
1/21/2021 1:15:00 AM 7.3799 1.266
1/21/2021 1:30:00 AM 7.3824 1.2478
1/21/2021 1:45:00 AM 7.3797 1.2629
1/21/2021 2:00:00 AM 7.3753 1.2272
1/21/2021 2:15:00 AM 7.3757 1.2146
1/21/2021 2:30:00 AM 7.3911 1.2451
1/21/2021 2:45:00 AM 7.4172 1.2001
1/21/2021 3:00:00 AM 7.7749 1.1927
1/21/2021 3:15:00 AM 7.9531 1.1667
1/21/2021 3:30:00 AM 8.0249 1.2422
1/21/2021 3:45:00 AM 8.0666 1.2263
1/21/2021 4:00:00 AM 8.0947 1.2521
1/21/2021 4:15:00 AM 8.0956 1.2299
1/21/2021 4:30:00 AM 8.0877 1.2406
1/21/2021 4:45:00 AM 8.0781 1.2099
1/21/2021 5:00:00 AM 7.9102 7.7494
1/21/2021 5:15:00 AM 7.6425 1.1675
1/21/2021 5:30:00 AM 7.6012 1.2213
1/21/2021 5:45:00 AM 7.5782 1.2001
1/21/2021 6:00:00 AM 7.5382 1.1399
1/21/2021 6:15:00 AM 7.5405 1.7833
1/21/2021 6:30:00 AM 7.5283 1.4287
1/21/2021 6:45:00 AM 7.536 1.1894
1/21/2021 7:00:00 AM 7.5362 1.1488
1/21/2021 7:15:00 AM 7.5396 1.167
1/21/2021 7:30:00 AM 7.5473 1.1439
1/21/2021 7:45:00 AM 7.555 1.1451
1/21/2021 8:00:00 AM 7.5561 1.2271
1/21/2021 8:15:00 AM 7.5567 1.1516
1/21/2021 8:30:00 AM 7.5598 1.1139
1/21/2021 8:45:00 AM 7.5614 1.0001
1/21/2021 9:00:00 AM 7.5561 1.0254
1/21/2021 9:15:00 AM 7.5479 1.0345
1/21/2021 9:30:00 AM 7.5441 1.0389
1/21/2021 9:45:00 AM 7.5488 1.0394
1/21/2021 10:00:00 AM 7.5515 1.0422
1/21/2021 10:15:00 AM 7.5479 1.0493
1/21/2021 10:30:00 AM 7.541 1.0507
1/21/2021 10:45:00 AM 7.5397 0.9989
1/21/2021 11:00:00 AM 7.5304 1.0107
1/21/2021 11:15:00 AM 7.5311 1.1917
1/21/2021 11:30:00 AM 7.5247 1.3287
1/21/2021 11:45:00 AM 7.5278 1.3999
1/21/2021 12:00:00 PM 7.5189 1.4425
1/21/2021 12:15:00 PM 7.5151 1.6342
1/21/2021 12:30:00 PM 7.5065 1.7728
1/21/2021 12:45:00 PM 7.5057 1.5376
1/21/2021 1:00:00 PM 7.4993 1.3416
1/21/2021 1:15:00 PM 7.4825 1.2233
1/21/2021 1:30:00 PM 7.4913 1.1534
1/21/2021 1:45:00 PM 7.5428 1.1841
1/21/2021 2:00:00 PM 7.6971 1.1433
1/21/2021 2:15:00 PM 7.8629 1.0576
1/21/2021 2:30:00 PM 7.982 1.0467
1/21/2021 2:45:00 PM 8.0131 1.05
1/21/2021 3:00:00 PM 8.0239 1.0473
1/21/2021 3:15:00 PM 8.0358 0.9829
1/21/2021 3:30:00 PM 8.0443 0.9419
1/21/2021 3:45:00 PM 7.9988 0.9324
1/21/2021 4:00:00 PM 7.8551 0.9366
1/21/2021 4:15:00 PM 7.7355 0.9472
1/21/2021 4:30:00 PM 7.6584 0.9646
1/21/2021 4:45:00 PM 7.6142 0.9409
1/21/2021 5:00:00 PM 7.5898 0.9485
1/21/2021 5:15:00 PM 7.5601 0.9425
1/21/2021 5:30:00 PM 7.5502 0.9366
1/21/2021 5:45:00 PM 7.5432 0.9999
1/21/2021 6:00:00 PM 7.5331 0.9486
1/21/2021 6:15:00 PM 7.5256 0.9689
1/21/2021 6:30:00 PM 7.519 1.0764
1/21/2021 6:45:00 PM 7.5145 1.0281
1/21/2021 7:00:00 PM 7.5108 0.973
1/21/2021 7:15:00 PM 7.5068 1.4331
1/21/2021 7:30:00 PM 7.5087 1.1702
1/21/2021 7:45:00 PM 7.5035 1.0579
1/21/2021 8:00:00 PM 7.4977 1.171
1/21/2021 8:15:00 PM 7.4993 1.1951
1/21/2021 8:30:00 PM 7.5021 1.1272
1/21/2021 8:45:00 PM 7.5026 1.1996
1/21/2021 9:00:00 PM 7.5022 1.0468
1/21/2021 9:15:00 PM 7.4987 1.0306
1/21/2021 9:30:00 PM 7.4951 1.0517
1/21/2021 9:45:00 PM 7.4927 1.0694
1/21/2021 10:00:00 PM 7.4914 1.036
1/21/2021 10:15:00 PM 7.4883 1.0373
1/21/2021 10:30:00 PM 7.4867 1.0548
1/21/2021 10:45:00 PM 7.4868 1.0566
1/21/2021 11:00:00 PM 7.4874 1.0324
1/21/2021 11:15:00 PM 7.49 1.0356
1/21/2021 11:30:00 PM 7.4838 0.9829
1/21/2021 11:45:00 PM 7.4802 1
1/22/2021 12:00:00 AM 7.4786 1.0149
1/22/2021 12:15:00 AM 7.4772 1.0295
1/22/2021 12:30:00 AM 7.4771 1.0456
1/22/2021 12:45:00 AM 7.4735 1.1215
1/22/2021 1:00:00 AM 7.474 1.0505
1/22/2021 1:15:00 AM 7.4747 1.0405
1/22/2021 1:30:00 AM 7.4732 1.0403
1/22/2021 1:45:00 AM 7.4722 1.106
1/22/2021 2:00:00 AM 7.4686 1.2814
1/22/2021 2:15:00 AM 7.4641 1.182
1/22/2021 2:30:00 AM 7.4626 1.1688
1/22/2021 2:45:00 AM 7.4648 1.3996
1/22/2021 3:00:00 AM 7.2253 1.1811
1/22/2021 3:15:00 AM 7.2849 1.1414
1/22/2021 3:30:00 AM 7.362 1.1397
1/22/2021 3:45:00 AM 7.3983 1.0437
1/22/2021 4:00:00 AM 7.415 1.0688
1/22/2021 4:15:00 AM 7.4266 1.0449
1/22/2021 4:30:00 AM 7.4358 1.0469
1/22/2021 4:45:00 AM 7.4419 1.0595
1/22/2021 5:00:00 AM 7.439 1.0525
1/22/2021 5:15:00 AM 7.4363 1.0454
1/22/2021 5:30:00 AM 7.4332 1.052
1/22/2021 5:45:00 AM 7.4368 1.0002
1/22/2021 6:00:00 AM 7.4327 1.0579
1/22/2021 6:15:00 AM 7.4224 1.0598
1/22/2021 6:30:00 AM 7.4203 1.0433
1/22/2021 6:45:00 AM 7.4138 1.0738
1/22/2021 7:00:00 AM 7.4084 1.0732
1/22/2021 7:15:00 AM 7.4015 1.0409
1/22/2021 7:30:00 AM 7.4064 1.0143
1/22/2021 7:45:00 AM 7.4132 1.0051
1/22/2021 8:00:00 AM 7.41 1.0661
1/22/2021 8:15:00 AM 7.3996 1.0584
1/22/2021 8:30:00 AM 7.3982 1.044
1/22/2021 8:45:00 AM 7.399 1.0001
1/22/2021 9:00:00 AM 7.4082 0.9801
1/22/2021 9:15:00 AM 7.4019 0.9918
1/22/2021 9:30:00 AM 7.4048 0.9958
1/22/2021 9:45:00 AM 7.4088 0.9623
1/22/2021 10:00:00 AM 7.4071 1.0033
1/22/2021 10:15:00 AM 7.4081 0.9968
1/22/2021 10:30:00 AM 7.4096 1.0457
1/22/2021 10:45:00 AM 7.4115 1.0462
1/22/2021 11:00:00 AM 7.4117 1.0507
1/22/2021 11:15:00 AM 7.4116 1.0767
1/22/2021 11:30:00 AM 7.4012 1.1459
1/22/2021 11:45:00 AM 7.3962 1.1997
1/22/2021 12:00:00 PM 7.4121 1.1453
1/22/2021 12:15:00 PM 7.4071 1.1256
1/22/2021 12:30:00 PM 7.4063 1.0436
1/22/2021 12:45:00 PM 7.4129 1.0409
1/22/2021 1:00:00 PM 7.4173 1.1928
1/22/2021 1:15:00 PM 7.4214 1.3368
1/22/2021 1:30:00 PM 7.4211 1.3039
1/22/2021 1:45:00 PM 7.4162 1.2659
1/22/2021 2:00:00 PM 7.4231 1.1908
1/22/2021 2:15:00 PM 7.4219 1.2366
1/22/2021 2:30:00 PM 7.4257 1.2558
1/22/2021 2:45:00 PM 7.4193 1.2408
1/22/2021 3:00:00 PM 7.4263 1.2114
1/22/2021 3:15:00 PM 7.4314 1.2733
1/22/2021 3:30:00 PM 7.431 1.2846
1/22/2021 3:45:00 PM 7.4274 1.2601
1/22/2021 4:00:00 PM 7.4331 1.2311
1/22/2021 4:15:00 PM 7.4313 1.4159
1/22/2021 4:30:00 PM 7.4335 1.2865
1/22/2021 4:45:00 PM 7.4354 1.2349
1/22/2021 5:00:00 PM 7.4372 1.2466
1/22/2021 5:15:00 PM 7.4297 1.2514
1/22/2021 5:30:00 PM 7.4371 1.2378
1/22/2021 5:45:00 PM 7.4368 1.1999
1/22/2021 6:00:00 PM 7.4365 1.1506
1/22/2021 6:15:00 PM 7.4342 1.1465
1/22/2021 6:30:00 PM 7.4388 1.1554
1/22/2021 6:45:00 PM 7.433 1.1501
1/22/2021 7:00:00 PM 7.4367 1.1696
1/22/2021 7:15:00 PM 7.4394 1.1994
1/22/2021 7:30:00 PM 7.4387 1.239
1/22/2021 7:45:00 PM 7.4263 1.2439
1/22/2021 8:00:00 PM 7.4304 1.1703
1/22/2021 8:15:00 PM 7.4384 1.2059
1/22/2021 8:30:00 PM 7.4389 1.2374
1/22/2021 8:45:00 PM 7.4382 1.1998
1/22/2021 9:00:00 PM 7.4443 1.1915
1/22/2021 9:15:00 PM 7.4449 1.2182
1/22/2021 9:30:00 PM 7.4491 1.225
1/22/2021 9:45:00 PM 7.4494 1.4936
1/22/2021 10:00:00 PM 7.4458 1.5497
1/22/2021 10:15:00 PM 7.4565 1.3829
1/22/2021 10:30:00 PM 7.4598 1.2952
1/22/2021 10:45:00 PM 7.4661 1.2367
1/22/2021 11:00:00 PM 7.472 1.2273
1/22/2021 11:15:00 PM 7.4753 1.2505
1/22/2021 11:30:00 PM 7.478 1.2533
1/22/2021 11:45:00 PM 7.4886 1.2999
1/23/2021 12:00:00 AM 7.7676 1.5394
1/23/2021 12:15:00 AM 7.9554 1.4961
1/23/2021 12:30:00 AM 8.0526 1.4542
1/23/2021 12:45:00 AM 8.1048 1.4916
1/23/2021 1:00:00 AM 8.1256 1.3986
1/23/2021 1:15:00 AM 8.1452 1.3534
1/23/2021 1:30:00 AM 8.1575 2.7768
1/23/2021 1:45:00 AM 8.1682 5.7058
1/23/2021 2:00:00 AM 7.8034 3.9404
1/23/2021 2:15:00 AM 7.3113 7.59
1/23/2021 2:30:00 AM 7.4242 13.2713
1/23/2021 2:45:00 AM 7.4382 12.9
1/23/2021 3:00:00 AM 7.5627 8.0573
1/23/2021 3:15:00 AM 7.5691 7.7185
1/23/2021 3:30:00 AM 7.5475 8.2161
1/23/2021 3:45:00 AM 7.5544 7.421
1/23/2021 4:00:00 AM 7.5664 6.6266
1/23/2021 4:15:00 AM 7.5741 5.6787
1/23/2021 4:30:00 AM 7.5801 5.102
1/23/2021 4:45:00 AM 7.5798 4.5015
1/23/2021 5:00:00 AM 7.5747 4.9303
1/23/2021 5:15:00 AM 7.571 4.6358
1/23/2021 5:30:00 AM 7.575 4.1294
1/23/2021 5:45:00 AM 7.5796 3.5
1/23/2021 6:00:00 AM 7.5293 1.9761
1/23/2021 6:15:00 AM 7.5295 1.749
1/23/2021 6:30:00 AM 7.5645 1.6305
1/23/2021 6:45:00 AM 7.556 1.3863
1/23/2021 7:00:00 AM 7.5598 1.2844
1/23/2021 7:15:00 AM 7.561 1.2353
1/23/2021 7:30:00 AM 7.5693 1.2252
1/23/2021 7:45:00 AM 7.5814 1.1435
1/23/2021 8:00:00 AM 7.5995 1.2495
1/23/2021 8:15:00 AM 7.7236 1.1624
1/23/2021 8:30:00 AM 7.8906 1.1448
1/23/2021 8:45:00 AM 7.9408 1.1
1/23/2021 9:00:00 AM 8.0114 1.1343
1/23/2021 9:15:00 AM 8.0336 1.086
1/23/2021 9:30:00 AM 8.0602 1.0582
1/23/2021 9:45:00 AM 8.0694 1.0352
1/23/2021 10:00:00 AM 7.9479 1.2079
1/23/2021 10:15:00 AM 7.5955 1.0289
1/23/2021 10:30:00 AM 7.5314 1.0389
1/23/2021 10:45:00 AM 7.5222 1.0366
1/23/2021 11:00:00 AM 7.5349 1.0424
1/23/2021 11:15:00 AM 7.5378 1.0345
1/23/2021 11:30:00 AM 7.5245 1.0407
1/23/2021 11:45:00 AM 7.5264 1.0998
1/23/2021 12:00:00 PM 7.5443 1.0431
1/23/2021 12:15:00 PM 7.5365 1.0331
1/23/2021 12:30:00 PM 7.5433 1.0347
1/23/2021 12:45:00 PM 7.5443 1.0482
1/23/2021 1:00:00 PM 7.5402 1.0389
1/23/2021 1:15:00 PM 7.5438 1.0443
1/23/2021 1:30:00 PM 7.5482 1.0692
1/23/2021 1:45:00 PM 7.5442 1.0585
1/23/2021 2:00:00 PM 7.5529 1.0481
1/23/2021 2:15:00 PM 7.5574 0.9748
1/23/2021 2:30:00 PM 7.5581 0.9939
1/23/2021 2:45:00 PM 7.5602 0.9834
1/23/2021 3:00:00 PM 7.5581 0.9433
1/23/2021 3:15:00 PM 7.5541 0.9367
1/23/2021 3:30:00 PM 7.5467 0.9213
1/23/2021 3:45:00 PM 7.5523 0.9211
1/23/2021 4:00:00 PM 7.5542 0.9363
1/23/2021 4:15:00 PM 7.5481 0.9492
1/23/2021 4:30:00 PM 7.5544 0.9348
1/23/2021 4:45:00 PM 7.5514 0.9467
1/23/2021 5:00:00 PM 7.5534 1.449
1/23/2021 5:15:00 PM 7.5659 1.2449
1/23/2021 5:30:00 PM 7.571 1.1651
1/23/2021 5:45:00 PM 7.5768 1.1998
1/23/2021 6:00:00 PM 7.5693 1.0906
1/23/2021 6:15:00 PM 7.5661 1.0328
1/23/2021 6:30:00 PM 7.5699 1.0501
1/23/2021 6:45:00 PM 7.5723 1.036
1/23/2021 7:00:00 PM 7.573 1.0455
1/23/2021 7:15:00 PM 7.5734 1.0493
1/23/2021 7:30:00 PM 7.5745 1.0489
1/23/2021 7:45:00 PM 7.5818 1.0511
1/23/2021 8:00:00 PM 7.6093 1.0479
1/23/2021 8:15:00 PM 7.634 1.0317
1/23/2021 8:30:00 PM 7.6583 1.0349
1/23/2021 8:45:00 PM 7.6734 1.0999
1/23/2021 9:00:00 PM 7.6972 1.0364
1/23/2021 9:15:00 PM 7.701 1.0225
1/23/2021 9:30:00 PM 7.7136 1.0245
1/23/2021 9:45:00 PM 7.7194 0.966
1/23/2021 10:00:00 PM 7.7284 0.9449
1/23/2021 10:15:00 PM 7.7238 0.9439
1/23/2021 10:30:00 PM 7.7091 0.9623
1/23/2021 10:45:00 PM 7.6217 0.9474
1/23/2021 11:00:00 PM 7.5692 0.9272
1/23/2021 11:15:00 PM 7.5504 0.9491
1/23/2021 11:30:00 PM 7.5464 0.9392
1/23/2021 11:45:00 PM 7.5502 0.9999
1/24/2021 12:00:00 AM 7.5473 0.9539
1/24/2021 12:15:00 AM 7.5466 0.9303
1/24/2021 12:30:00 AM 7.5499 0.9353
1/24/2021 12:45:00 AM 7.5457 0.9241
1/24/2021 1:00:00 AM 7.5443 0.9363
1/24/2021 1:15:00 AM 7.5454 0.9282
1/24/2021 1:30:00 AM 7.5413 0.9368
1/24/2021 1:45:00 AM 7.5377 0.9413
1/24/2021 2:00:00 AM 7.5372 0.9437
1/24/2021 2:15:00 AM 7.5369 0.9552
1/24/2021 2:30:00 AM 7.5301 0.9589
1/24/2021 2:45:00 AM 7.5362 0.9001
1/24/2021 3:00:00 AM 7.5242 0.9329
1/24/2021 3:15:00 AM 7.528 0.9429
1/24/2021 3:30:00 AM 7.5296 0.9104
1/24/2021 3:45:00 AM 7.5275 0.9133
1/24/2021 4:00:00 AM 7.5298 0.8902
1/24/2021 4:15:00 AM 7.5368 0.8812
1/24/2021 4:30:00 AM 7.5508 0.8593
1/24/2021 4:45:00 AM 7.5767 0.8378
1/24/2021 5:00:00 AM 7.6013 0.8351
1/24/2021 5:15:00 AM 7.6375 0.8308
1/24/2021 5:30:00 AM 7.6428 0.8503
1/24/2021 5:45:00 AM 7.6342 0.8
1/24/2021 6:00:00 AM 7.6517 0.8433
1/24/2021 6:15:00 AM 7.6451 0.7798
1/24/2021 6:30:00 AM 7.6328 0.7845
1/24/2021 6:45:00 AM 7.6248 0.7711
1/24/2021 7:00:00 AM 7.6213 0.8152
1/24/2021 7:15:00 AM 7.6174 0.7837
1/24/2021 7:30:00 AM 7.6379 0.7565
1/24/2021 7:45:00 AM 7.6367 0.7813
1/24/2021 8:00:00 AM 7.5217 0.8563
1/24/2021 8:15:00 AM 7.4171 0.8117
1/24/2021 8:30:00 AM 7.4129 0.7206
1/24/2021 8:45:00 AM 7.434 0.7999
1/24/2021 9:00:00 AM 7.4557 0.7506
1/24/2021 9:15:00 AM 7.4599 0.7444
1/24/2021 9:30:00 AM 7.4514 0.7507
1/24/2021 9:45:00 AM 7.4441 0.7541
1/24/2021 10:00:00 AM 7.4361 0.7389
1/24/2021 10:15:00 AM 7.4325 0.7604
1/24/2021 10:30:00 AM 7.4297 0.7355
1/24/2021 10:45:00 AM 7.4051 0.7576
1/24/2021 11:00:00 AM 7.3909 0.7472
1/24/2021 11:15:00 AM 7.3843 0.7653
1/24/2021 11:30:00 AM 7.3814 0.7498
1/24/2021 11:45:00 AM 7.3934 0.7999
1/24/2021 12:00:00 PM 7.3921 0.7344
1/24/2021 12:15:00 PM 7.3916 0.7534
1/24/2021 12:30:00 PM 7.3997 0.7444
1/24/2021 12:45:00 PM 7.4113 0.749
1/24/2021 1:00:00 PM 7.4139 0.7546
1/24/2021 1:15:00 PM 7.391 0.7571
1/24/2021 1:30:00 PM 7.4075 0.7468
1/24/2021 1:45:00 PM 7.3963 0.7501
1/24/2021 2:00:00 PM 7.4084 0.7327
1/24/2021 2:15:00 PM 7.4267 0.7458
1/24/2021 2:30:00 PM 7.4468 0.8215
1/24/2021 2:45:00 PM 7.4504 0.8283
1/24/2021 3:00:00 PM 7.4587 0.7817
1/24/2021 3:15:00 PM 7.4604 0.7778
1/24/2021 3:30:00 PM 7.4614 0.7466
1/24/2021 3:45:00 PM 7.4716 0.7199
1/24/2021 4:00:00 PM 7.4682 0.7403
1/24/2021 4:15:00 PM 7.465 0.8136
1/24/2021 4:30:00 PM 7.4638 0.8918
1/24/2021 4:45:00 PM 7.4712 0.931
1/24/2021 5:00:00 PM 7.478 0.9885
1/24/2021 5:15:00 PM 7.4817 0.9255
1/24/2021 5:30:00 PM 7.4884 0.953
1/24/2021 5:45:00 PM 7.4872 1
1/24/2021 6:00:00 PM 7.547 0.8331
1/24/2021 6:15:00 PM 7.6011 0.8355
1/24/2021 6:30:00 PM 7.6503 0.8598
1/24/2021 6:45:00 PM 7.6945 0.8751
1/24/2021 7:00:00 PM 7.7267 0.8652
1/24/2021 7:15:00 PM 7.752 0.836
1/24/2021 7:30:00 PM 7.7408 0.7734
1/24/2021 7:45:00 PM 7.746 0.7555
1/24/2021 8:00:00 PM 7.7437 0.8384
1/24/2021 8:15:00 PM 7.7355 1.005
1/24/2021 8:30:00 PM 7.7378 0.9042
1/24/2021 8:45:00 PM 7.7294 0.8997
1/24/2021 9:00:00 PM 7.6533 0.836
1/24/2021 9:15:00 PM 7.5405 0.8437
1/24/2021 9:30:00 PM 7.4916 0.8538
1/24/2021 9:45:00 PM 7.474 0.8414
1/24/2021 10:00:00 PM 7.4661 0.8457
1/24/2021 10:15:00 PM 7.4614 0.8436
1/24/2021 10:30:00 PM 7.4583 0.8329
1/24/2021 10:45:00 PM 7.4516 0.8194
1/24/2021 11:00:00 PM 7.4482 0.7845
1/24/2021 11:15:00 PM 7.445 0.7432
1/24/2021 11:30:00 PM 7.4434 0.739
1/24/2021 11:45:00 PM 7.4424 0.7999
1/25/2021 12:00:00 AM 7.4325 0.7531
1/25/2021 12:15:00 AM 7.431 0.7501
1/25/2021 12:30:00 AM 7.4293 0.7391
1/25/2021 12:45:00 AM 7.4249 0.7477
1/25/2021 1:00:00 AM 7.4231 0.759
1/25/2021 1:15:00 AM 7.4239 0.8065
1/25/2021 1:30:00 AM 7.4147 0.8264
1/25/2021 1:45:00 AM 7.434 0.8317
1/25/2021 2:00:00 AM 7.4681 0.8392
1/25/2021 2:15:00 AM 7.5139 0.8439
1/25/2021 2:30:00 AM 7.5527 0.8481
1/25/2021 2:45:00 AM 7.5558 0.8998
1/25/2021 3:00:00 AM 7.5834 0.8411
1/25/2021 3:15:00 AM 7.6018 0.859
1/25/2021 3:30:00 AM 7.6043 0.8505
1/25/2021 3:45:00 AM 7.5981 0.833
1/25/2021 4:00:00 AM 7.6059 0.8359
1/25/2021 4:15:00 AM 7.6209 0.8259
1/25/2021 4:30:00 AM 7.6263 0.8226
1/25/2021 4:45:00 AM 7.6262 0.8205
1/25/2021 5:00:00 AM 7.6115 0.8236
1/25/2021 5:15:00 AM 7.6074 0.8275
1/25/2021 5:30:00 AM 7.6113 0.8193
1/25/2021 5:45:00 AM 7.6146 0.8999
1/25/2021 6:00:00 AM 7.4988 0.8442
1/25/2021 6:15:00 AM 7.3357 0.8258
1/25/2021 6:30:00 AM 7.4331 0.8347
1/25/2021 6:45:00 AM 7.4875 0.8511
1/25/2021 7:00:00 AM 7.5089 0.8407
1/25/2021 7:15:00 AM 7.4291 0.8494
1/25/2021 7:30:00 AM 7.3511 0.8339
1/25/2021 7:45:00 AM 7.3274 0.8244
1/25/2021 8:00:00 AM 7.3307 0.8262
1/25/2021 8:15:00 AM 7.3243 0.8265
1/25/2021 8:30:00 AM 7.32 0.8302
1/25/2021 8:45:00 AM 7.3206 0.8997
1/25/2021 9:00:00 AM 7.2969 0.8266
1/25/2021 9:15:00 AM 7.3013 0.8337
1/25/2021 9:30:00 AM 7.3052 0.8783
1/25/2021 9:45:00 AM 7.2895 0.9418
1/25/2021 10:00:00 AM 7.2825 0.9062
1/25/2021 10:15:00 AM 7.2766 0.8568
1/25/2021 10:30:00 AM 7.2607 0.8364
1/25/2021 10:45:00 AM 7.2815 0.8344
1/25/2021 11:00:00 AM 7.2842 0.8323
1/25/2021 11:15:00 AM 7.2772 0.9434
1/25/2021 11:30:00 AM 7.2895 1.1352
1/25/2021 11:45:00 AM 7.2842 1.1
1/25/2021 12:00:00 PM 7.2942 0.9683
1/25/2021 12:15:00 PM 7.3031 0.8569
1/25/2021 12:30:00 PM 7.2994 0.8581
1/25/2021 12:45:00 PM 7.2906 0.8247
1/25/2021 1:00:00 PM 7.2969 0.849
1/25/2021 1:15:00 PM 7.2903 0.7803
1/25/2021 1:30:00 PM 7.3097 0.7566
1/25/2021 1:45:00 PM 7.3075 0.7479
1/25/2021 2:00:00 PM 7.3098 0.7256
1/25/2021 2:15:00 PM 7.3165 0.724
1/25/2021 2:30:00 PM 7.3494 0.7339
1/25/2021 2:45:00 PM 7.4009 0.723
1/25/2021 3:00:00 PM 7.481 0.7216
1/25/2021 3:15:00 PM 7.5787 0.7455
1/25/2021 3:30:00 PM 7.6522 0.7516
1/25/2021 3:45:00 PM 7.7367 0.7244
1/25/2021 4:00:00 PM 7.7744 0.7393
1/25/2021 4:15:00 PM 7.8157 0.7275
1/25/2021 4:30:00 PM 7.8415 0.7583
1/25/2021 4:45:00 PM 7.8364 0.7327
1/25/2021 5:00:00 PM 7.8527 0.7485
1/25/2021 5:15:00 PM 7.7309 0.7625
1/25/2021 5:30:00 PM 7.5228 0.7557
1/25/2021 5:45:00 PM 7.4424 0.7002
1/25/2021 6:00:00 PM 7.3709 0.7597
1/25/2021 6:15:00 PM 7.3643 0.7561
1/25/2021 6:30:00 PM 7.3564 0.7421
1/25/2021 6:45:00 PM 7.3508 0.7542
1/25/2021 7:00:00 PM 7.3305 0.741
1/25/2021 7:15:00 PM 7.3395 0.7374
1/25/2021 7:30:00 PM 7.3333 0.7683
1/25/2021 7:45:00 PM 7.3031 0.7513
1/25/2021 8:00:00 PM 7.3307 0.7605
1/25/2021 8:15:00 PM 7.3468 0.9784
1/25/2021 8:30:00 PM 7.368 0.8797
1/25/2021 8:45:00 PM 7.3724 0.8003
1/25/2021 9:00:00 PM 7.3735 0.7642
1/25/2021 9:15:00 PM 7.3772 0.7195
1/25/2021 9:30:00 PM 7.3798 0.7236
1/25/2021 9:45:00 PM 7.3805 0.744
1/25/2021 10:00:00 PM 7.3852 0.7446
1/25/2021 10:15:00 PM 7.3858 0.7444
1/25/2021 10:30:00 PM 7.3848 0.8304
1/25/2021 10:45:00 PM 7.3799 0.8447
1/25/2021 11:00:00 PM 7.3769 0.825
1/25/2021 11:15:00 PM 7.378 0.7333
1/25/2021 11:30:00 PM 7.3781 0.7539
1/25/2021 11:45:00 PM 7.3766 0.8
1/26/2021 12:00:00 AM 7.376 0.7375
1/26/2021 12:15:00 AM 7.3749 0.7354
1/26/2021 12:30:00 AM 7.3763 0.7465
1/26/2021 12:45:00 AM 7.3743 0.7445
1/26/2021 1:00:00 AM 7.3736 0.7472
1/26/2021 1:15:00 AM 7.3727 0.7359
1/26/2021 1:30:00 AM 7.4221 0.713
1/26/2021 1:45:00 AM 7.5282 0.7374
1/26/2021 2:00:00 AM 7.6806 0.7225
1/26/2021 2:15:00 AM 7.803 0.7431
1/26/2021 2:30:00 AM 7.8443 0.7419
1/26/2021 2:45:00 AM 7.8568 0.6999
1/26/2021 3:00:00 AM 7.8488 0.7271
1/26/2021 3:15:00 AM 7.8451 0.6959
1/26/2021 3:30:00 AM 7.8574 0.6874
1/26/2021 3:45:00 AM 7.8693 0.7096
1/26/2021 4:00:00 AM 7.8737 0.6927
1/26/2021 4:15:00 AM 7.8652 0.7152
1/26/2021 4:30:00 AM 7.7916 0.7438
1/26/2021 4:45:00 AM 7.6071 0.739
1/26/2021 5:00:00 AM 7.4717 0.6891
1/26/2021 5:15:00 AM 7.4073 0.7396
1/26/2021 5:30:00 AM 7.3775 0.7462
1/26/2021 5:45:00 AM 7.371 0.7005
1/26/2021 6:00:00 AM 7.2546 0.7533
1/26/2021 6:15:00 AM 7.1845 0.7314
1/26/2021 6:30:00 AM 7.2493 0.6939
1/26/2021 6:45:00 AM 7.1671 0.7139
1/26/2021 7:00:00 AM 7.0008 0.7268
1/26/2021 7:15:00 AM 7.1358 0.7426
1/26/2021 7:30:00 AM 7.2185 0.7402
1/26/2021 7:45:00 AM 7.2641 0.7444
1/26/2021 8:00:00 AM 7.2992 0.7033
1/26/2021 8:15:00 AM 7.2955 0.7623
1/26/2021 8:30:00 AM 7.2759 0.7038
1/26/2021 8:45:00 AM 7.2674 0.6999
1/26/2021 9:00:00 AM 7.2687 0.652
1/26/2021 9:15:00 AM 7.2646 0.6795
1/26/2021 9:30:00 AM 7.2437 0.6457
1/26/2021 9:45:00 AM 7.238 0.6606
1/26/2021 10:00:00 AM 7.2446 0.6815
1/26/2021 10:15:00 AM 7.2643 0.6785
1/26/2021 10:30:00 AM 7.2679 0.6542
1/26/2021 10:45:00 AM 7.2838 0.6492
1/26/2021 11:00:00 AM 7.2968 0.6496
1/26/2021 11:15:00 AM 7.2807 0.668
1/26/2021 11:30:00 AM 7.2916 0.6483
1/26/2021 11:45:00 AM 7.287 0.6999
1/26/2021 12:00:00 PM 7.2916 0.6273
1/26/2021 12:15:00 PM 7.2877 0.6563
1/26/2021 12:30:00 PM 7.2769 0.6522
1/26/2021 12:45:00 PM 7.2988 0.633
1/26/2021 1:00:00 PM 7.3128 0.6353
1/26/2021 1:15:00 PM 7.3205 0.6317
1/26/2021 1:30:00 PM 7.305 0.621
1/26/2021 1:45:00 PM 7.2891 0.6394
1/26/2021 2:00:00 PM 7.2899 0.633
1/26/2021 2:15:00 PM 7.2847 0.6331
1/26/2021 2:30:00 PM 7.3394 0.6314
1/26/2021 2:45:00 PM 7.4594 0.6178
1/26/2021 3:00:00 PM 7.6152 0.6248
1/26/2021 3:15:00 PM 7.728 0.637
1/26/2021 3:30:00 PM 7.7603 0.6256
1/26/2021 3:45:00 PM 7.7827 3.5142
1/26/2021 4:00:00 PM 7.7887 0.665
1/26/2021 4:15:00 PM 7.7848 0.6342
1/26/2021 4:30:00 PM 7.7657 0.6526
1/26/2021 4:45:00 PM 7.689 0.5998
1/26/2021 5:00:00 PM 7.4865 0.667
1/26/2021 5:15:00 PM 7.3447 0.6663
1/26/2021 5:30:00 PM 7.3034 0.6377
1/26/2021 5:45:00 PM 7.2954 0.6003
1/26/2021 6:00:00 PM 7.2747 0.6528
1/26/2021 6:15:00 PM 7.2655 0.6572
1/26/2021 6:30:00 PM 7.2722 0.6625
1/26/2021 6:45:00 PM 7.2756 0.6397
1/26/2021 7:00:00 PM 7.2812 0.6993
1/26/2021 7:15:00 PM 7.3008 0.7248
1/26/2021 7:30:00 PM 7.298 0.7108
1/26/2021 7:45:00 PM 7.299 0.6684
1/26/2021 8:00:00 PM 7.3014 0.65
1/26/2021 8:15:00 PM 7.3063 0.6309
1/26/2021 8:30:00 PM 7.3095 0.6232
1/26/2021 8:45:00 PM 7.3066 0.6999
1/26/2021 9:00:00 PM 7.3202 0.6295
1/26/2021 9:15:00 PM 7.3155 0.6331
1/26/2021 9:30:00 PM 7.3142 0.6413
1/26/2021 9:45:00 PM 7.3114 0.6415
1/26/2021 10:00:00 PM 7.3121 0.6333
1/26/2021 10:15:00 PM 7.3144 0.6569
1/26/2021 10:30:00 PM 7.313 0.6441
1/26/2021 10:45:00 PM 7.3153 0.6381
1/26/2021 11:00:00 PM 7.3176 0.6416
1/26/2021 11:15:00 PM 7.3173 0.6413
1/26/2021 11:30:00 PM 7.3169 0.6544
1/26/2021 11:45:00 PM 7.3192 0.6001
1/27/2021 12:00:00 AM 7.313 0.6508
1/27/2021 12:15:00 AM 7.3105 0.6349
1/27/2021 12:30:00 AM 7.3134 0.6227
1/27/2021 12:45:00 AM 7.3157 0.6402
1/27/2021 1:00:00 AM 7.3148 0.6498
1/27/2021 1:15:00 AM 7.3131 0.6327
1/27/2021 1:30:00 AM 7.3088 0.6275
1/27/2021 1:45:00 AM 7.3093 0.6338
1/27/2021 2:00:00 AM 7.2998 0.5615
1/27/2021 2:15:00 AM 7.299 0.5803
1/27/2021 2:30:00 AM 7.296 0.5732
1/27/2021 2:45:00 AM 7.301 0.6001
1/27/2021 3:00:00 AM 7.3034 0.5618
1/27/2021 3:15:00 AM 7.3044 0.5819
1/27/2021 3:30:00 AM 7.299 0.5721
1/27/2021 3:45:00 AM 7.3002 0.5557
1/27/2021 4:00:00 AM 7.3037 0.561
1/27/2021 4:15:00 AM 7.3022 0.5713
1/27/2021 4:30:00 AM 7.3051 0.5584
1/27/2021 4:45:00 AM 7.3047 0.522
1/27/2021 5:00:00 AM 7.2965 0.5401
1/27/2021 5:15:00 AM 7.2962 0.5477
1/27/2021 5:30:00 AM 7.2991 0.5387
1/27/2021 5:45:00 AM 7.294 0.5
1/27/2021 6:00:00 AM 7.0428 0.6316
1/27/2021 6:15:00 AM 6.9568 0.5453
1/27/2021 6:30:00 AM 6.9715 0.5484
1/27/2021 6:45:00 AM 7.0509 0.5466
1/27/2021 7:00:00 AM 7.1038 0.5267
1/27/2021 7:15:00 AM 7.1376 0.5396
1/27/2021 7:30:00 AM 7.2202 0.5501
1/27/2021 7:45:00 AM 7.3713 0.5876
1/27/2021 8:00:00 AM 7.5443 0.5316
1/27/2021 8:15:00 AM 7.6488 0.5621
1/27/2021 8:30:00 AM 7.7269 0.5328
1/27/2021 8:45:00 AM 7.7154 0.5999
1/27/2021 9:00:00 AM 7.7103 0.5316
1/27/2021 9:15:00 AM 7.7214 0.5475
1/27/2021 9:30:00 AM 7.721 0.5439
1/27/2021 9:45:00 AM 7.5788 0.622
1/27/2021 10:00:00 AM 7.3932 0.6506
1/27/2021 10:15:00 AM 7.329 0.5734
1/27/2021 10:30:00 AM 7.3221 0.5922
1/27/2021 10:45:00 AM 7.3175 0.5789
1/27/2021 11:00:00 AM 7.292 0.5846
1/27/2021 11:15:00 AM 7.2814 0.5803
1/27/2021 11:30:00 AM 7.2845 0.5871
1/27/2021 11:45:00 AM 7.2758 0.7
1/27/2021 12:00:00 PM 7.2762 0.6583
1/27/2021 12:15:00 PM 7.2884 0.6584
1/27/2021 12:30:00 PM 7.2677 0.6547
1/27/2021 12:45:00 PM 7.2582 0.659
1/27/2021 1:00:00 PM 7.2587 0.6591
1/27/2021 1:15:00 PM 7.2569 0.6514
1/27/2021 1:30:00 PM 7.2734 0.6528
1/27/2021 1:45:00 PM 7.2821 0.6585
1/27/2021 2:00:00 PM 7.2908 0.6586
1/27/2021 2:15:00 PM 7.2804 0.6586
1/27/2021 2:30:00 PM 7.2763 0.6532
1/27/2021 2:45:00 PM 7.2667 0.6499
1/27/2021 3:00:00 PM 7.275 0.654
1/27/2021 3:15:00 PM 7.2729 0.6483
1/27/2021 3:30:00 PM 7.2691 0.6507
1/27/2021 3:45:00 PM 7.2713 0.6484
1/27/2021 4:00:00 PM 7.2537 0.6378
1/27/2021 4:15:00 PM 7.2602 0.6444
1/27/2021 4:30:00 PM 7.2864 0.6593
1/27/2021 4:45:00 PM 7.2873 0.6377
1/27/2021 5:00:00 PM 7.2931 0.646
1/27/2021 5:15:00 PM 7.2797 0.6417
1/27/2021 5:30:00 PM 7.2684 0.6408
1/27/2021 5:45:00 PM 7.2646 0.6
1/27/2021 6:00:00 PM 7.2686 0.6474
1/27/2021 6:15:00 PM 7.2673 0.6391
1/27/2021 6:30:00 PM 7.2908 0.632
1/27/2021 6:45:00 PM 7.396 0.6464
1/27/2021 7:00:00 PM 7.5659 0.6487
1/27/2021 7:15:00 PM 7.7245 0.6538
1/27/2021 7:30:00 PM 7.7878 0.6661
1/27/2021 7:45:00 PM 7.8071 0.6585
1/27/2021 8:00:00 PM 7.8187 0.6571
1/27/2021 8:15:00 PM 7.8285 0.6527
1/27/2021 8:30:00 PM 7.7513 0.6642
1/27/2021 8:45:00 PM 7.6538 0.6997
1/27/2021 9:00:00 PM 7.4234 0.6609
1/27/2021 9:15:00 PM 7.3538 0.6489
1/27/2021 9:30:00 PM 7.3285 0.641
1/27/2021 9:45:00 PM 7.3229 0.6785
1/27/2021 10:00:00 PM 7.3327 0.775
1/27/2021 10:15:00 PM 7.3361 0.7268
1/27/2021 10:30:00 PM 7.3393 0.6526
1/27/2021 10:45:00 PM 7.3405 0.6302
1/27/2021 11:00:00 PM 7.3474 0.6313
1/27/2021 11:15:00 PM 7.3472 0.629
1/27/2021 11:30:00 PM 7.3434 0.6345
1/27/2021 11:45:00 PM 7.3444 0.6993
1/28/2021 12:00:00 AM 7.3424 0.6471
1/28/2021 12:15:00 AM 7.3425 0.6231
1/28/2021 12:30:00 AM 7.3442 0.639
1/28/2021 12:45:00 AM 7.3462 0.6523
1/28/2021 1:00:00 AM 7.345 0.637
1/28/2021 1:15:00 AM 7.3414 0.6482
1/28/2021 1:30:00 AM 7.3424 0.6503
1/28/2021 1:45:00 AM 7.3386 0.6601
1/28/2021 2:00:00 AM 7.3408 0.6392
1/28/2021 2:15:00 AM 7.3453 0.65
1/28/2021 2:30:00 AM 7.4084 0.6539
1/28/2021 2:45:00 AM 7.469 0.6001
1/28/2021 3:00:00 AM 7.7377 0.6493
1/28/2021 3:15:00 AM 7.8052 0.6465
1/28/2021 3:30:00 AM 7.8397 0.598
1/28/2021 3:45:00 AM 7.8514 0.6098
1/28/2021 4:00:00 AM 7.8804 0.5822
1/28/2021 4:15:00 AM 7.8884 0.595
1/28/2021 4:30:00 AM 7.8798 0.6081
1/28/2021 4:45:00 AM 7.8655 0.589
1/28/2021 5:00:00 AM 7.8613 0.5738
1/28/2021 5:15:00 AM 7.8794 0.55
1/28/2021 5:30:00 AM 7.8785 0.5541
1/28/2021 5:45:00 AM 7.8414 0.7
1/28/2021 6:00:00 AM 7.3473 0.5799
1/28/2021 6:15:00 AM 7.149 0.6014
1/28/2021 6:30:00 AM 7.1815 0.5774
1/28/2021 6:45:00 AM 7.244 0.5237
1/28/2021 7:00:00 AM 7.2096 0.5297
1/28/2021 7:15:00 AM 7.1927 0.5276
1/28/2021 7:30:00 AM 7.1894 0.5274
1/28/2021 7:45:00 AM 7.1857 0.515
1/28/2021 8:00:00 AM 7.2018 0.5567
1/28/2021 8:15:00 AM 7.2236 0.5586
1/28/2021 8:30:00 AM 7.2401 0.6129
1/28/2021 8:45:00 AM 7.2492 0.7
1/28/2021 9:00:00 AM 7.2249 0.616
1/28/2021 9:15:00 AM 7.2428 0.5731
1/28/2021 9:30:00 AM 7.2471 0.5732
1/28/2021 9:45:00 AM 7.2289 0.5427
1/28/2021 10:00:00 AM 7.2344 0.5617
1/28/2021 10:15:00 AM 7.2359 0.5506
1/28/2021 10:30:00 AM 7.2477 0.574
1/28/2021 10:45:00 AM 7.2664 0.5944
1/28/2021 11:00:00 AM 7.2597 0.5883
1/28/2021 11:15:00 AM 7.2706 0.5633
1/28/2021 11:30:00 AM 7.265 0.5598
1/28/2021 11:45:00 AM 7.2604 0.5
1/28/2021 12:00:00 PM 7.2669 0.5553
1/28/2021 12:15:00 PM 7.282 0.5607
1/28/2021 12:30:00 PM 7.2948 0.5786
1/28/2021 12:45:00 PM 7.2916 0.5553
1/28/2021 1:00:00 PM 7.2929 0.5913
1/28/2021 1:15:00 PM 7.2918 0.5573
1/28/2021 1:30:00 PM 7.2948 0.5551
1/28/2021 1:45:00 PM 7.2936 0.5806
1/28/2021 2:00:00 PM 7.2964 0.5941
1/28/2021 2:15:00 PM 7.2936 0.6056
1/28/2021 2:30:00 PM 7.2914 0.5766
1/28/2021 2:45:00 PM 7.2915 0.5796
1/28/2021 3:00:00 PM 7.3023 0.5909
1/28/2021 3:15:00 PM 7.3136 0.57
1/28/2021 3:30:00 PM 7.3364 0.6064
1/28/2021 3:45:00 PM 7.3296 0.6553
1/28/2021 4:00:00 PM 7.3366 0.5807
1/28/2021 4:15:00 PM 7.3279 0.615
1/28/2021 4:30:00 PM 7.331 0.5861
1/28/2021 4:45:00 PM 7.3254 0.5569
1/28/2021 5:00:00 PM 7.3005 0.5506
1/28/2021 5:15:00 PM 7.3057 0.5792
1/28/2021 5:30:00 PM 7.3183 0.6225
1/28/2021 5:45:00 PM 7.3206 0.6
1/28/2021 6:00:00 PM 7.3102 0.6199
1/28/2021 6:15:00 PM 7.3205 0.662
1/28/2021 6:30:00 PM 7.333 0.5924
1/28/2021 6:45:00 PM 7.4565 0.5633
1/28/2021 7:00:00 PM 7.6639 0.5895
1/28/2021 7:15:00 PM 7.789 0.6159
1/28/2021 7:30:00 PM 7.8473 0.5942
1/28/2021 7:45:00 PM 7.8557 0.5932
1/28/2021 8:00:00 PM 7.8502 0.6298
1/28/2021 8:15:00 PM 7.8668 0.7765
1/28/2021 8:30:00 PM 7.8787 0.682
1/28/2021 8:45:00 PM 7.8764 0.6998
1/28/2021 9:00:00 PM 7.8751 0.6331
1/28/2021 9:15:00 PM 7.8779 0.6384
1/28/2021 9:30:00 PM 7.886 0.6577
1/28/2021 9:45:00 PM 7.8935 0.6688
1/28/2021 10:00:00 PM 7.8772 0.6528
1/28/2021 10:15:00 PM 7.7407 0.6565
1/28/2021 10:30:00 PM 7.5631 0.6648
1/28/2021 10:45:00 PM 7.4578 0.6427
1/28/2021 11:00:00 PM 7.4122 0.6658
1/28/2021 11:15:00 PM 7.3973 0.6635
1/28/2021 11:30:00 PM 7.3909 0.6401
1/28/2021 11:45:00 PM 7.3934 0.7
1/29/2021 12:00:00 AM 7.3853 0.6323
1/29/2021 12:15:00 AM 7.3828 0.6403
1/29/2021 12:30:00 AM 7.3831 0.6098
1/29/2021 12:45:00 AM 7.3785 0.614
1/29/2021 1:00:00 AM 7.378 0.6031
1/29/2021 1:15:00 AM 7.3767 0.645
1/29/2021 1:30:00 AM 7.3785 0.6528
1/29/2021 1:45:00 AM 7.3761 0.656
1/29/2021 2:00:00 AM 7.3707 0.6384
1/29/2021 2:15:00 AM 7.3711 0.6465
1/29/2021 2:30:00 AM 7.3718 0.6513
1/29/2021 2:45:00 AM 7.3724 0.7
1/29/2021 3:00:00 AM 7.3555 0.637
1/29/2021 3:15:00 AM 7.3539 0.6399
1/29/2021 3:30:00 AM 7.3527 0.6489
1/29/2021 3:45:00 AM 7.3496 0.6597
1/29/2021 4:00:00 AM 7.3484 0.6443
1/29/2021 4:15:00 AM 7.3486 0.7148
1/29/2021 4:30:00 AM 7.3509 0.707
1/29/2021 4:45:00 AM 7.3682 0.7204
1/29/2021 5:00:00 AM 7.4642 0.7545
1/29/2021 5:15:00 AM 7.6286 0.6805
1/29/2021 5:30:00 AM 7.7642 0.6765
1/29/2021 5:45:00 AM 7.8176 0.6999
1/29/2021 6:00:00 AM 7.5972 0.6459
1/29/2021 6:15:00 AM 7.5321 0.6547
1/29/2021 6:30:00 AM 7.5888 0.626
1/29/2021 6:45:00 AM 7.6436 0.5457
1/29/2021 7:00:00 AM 7.7091 0.5378
1/29/2021 7:15:00 AM 7.7451 0.5613
1/29/2021 7:30:00 AM 7.754 0.5259
1/29/2021 7:45:00 AM 7.7334 0.5505
1/29/2021 8:00:00 AM 7.7227 0.5403
1/29/2021 8:15:00 AM 7.7134 0.529
1/29/2021 8:30:00 AM 7.7146 0.5332
1/29/2021 8:45:00 AM 7.7 0.6
1/29/2021 9:00:00 AM 7.7167 0.5704
1/29/2021 9:15:00 AM 7.7348 0.6048
1/29/2021 9:30:00 AM 7.7316 0.5966
1/29/2021 9:45:00 AM 7.5796 0.6466
1/29/2021 10:00:00 AM 7.4174 0.641
1/29/2021 10:15:00 AM 7.3188 0.6428
1/29/2021 10:30:00 AM 7.2839 0.6472
1/29/2021 10:45:00 AM 7.2745 0.6426
1/29/2021 11:00:00 AM 7.2701 0.6448
1/29/2021 11:15:00 AM 7.264 0.6508
1/29/2021 11:30:00 AM 7.2622 0.6551
1/29/2021 11:45:00 AM 7.2632 0.6
1/29/2021 12:00:00 PM 7.2727 0.6472
1/29/2021 12:15:00 PM 7.2847 0.6399
1/29/2021 12:30:00 PM 7.3473 0.6429
1/29/2021 12:45:00 PM 7.4949 0.6534
1/29/2021 1:00:00 PM 7.6229 0.6194
1/29/2021 1:15:00 PM 7.6822 0.6004
1/29/2021 1:30:00 PM 7.7025 0.5698
1/29/2021 1:45:00 PM 7.7329 0.5969
1/29/2021 2:00:00 PM 7.7553 0.6018
1/29/2021 2:15:00 PM 7.744 0.597
1/29/2021 2:30:00 PM 7.7455 0.5289
1/29/2021 2:45:00 PM 7.7557 0.542
1/29/2021 3:00:00 PM 7.7625 0.5368
1/29/2021 3:15:00 PM 7.7576 0.5283
1/29/2021 3:30:00 PM 7.7635 0.5315
1/29/2021 3:45:00 PM 7.7696 0.5161
1/29/2021 4:00:00 PM 7.7772 0.5224
1/29/2021 4:15:00 PM 7.782 0.5271
1/29/2021 4:30:00 PM 7.7923 0.5313
1/29/2021 4:45:00 PM 7.7923 0.525
1/29/2021 5:00:00 PM 7.7938 0.5453
1/29/2021 5:15:00 PM 7.7901 0.5333
1/29/2021 5:30:00 PM 7.7661 0.5292
1/29/2021 5:45:00 PM 7.7546 0.6
1/29/2021 6:00:00 PM 7.7604 0.5274
1/29/2021 6:15:00 PM 7.7357 0.5244
1/29/2021 6:30:00 PM 7.7296 0.5362
1/29/2021 6:45:00 PM 7.7271 0.5366
1/29/2021 7:00:00 PM 7.7191 0.5233
1/29/2021 7:15:00 PM 7.7142 0.5291
1/29/2021 7:30:00 PM 7.7128 0.5167
1/29/2021 7:45:00 PM 7.7012 0.5299
1/29/2021 8:00:00 PM 7.707 0.5209
1/29/2021 8:15:00 PM 7.6994 0.5264
1/29/2021 8:30:00 PM 7.6874 0.542
1/29/2021 8:45:00 PM 7.6902 0.5999
1/29/2021 9:00:00 PM 7.6804 0.5322
1/29/2021 9:15:00 PM 7.6677 0.5911
1/29/2021 9:30:00 PM 7.6768 0.6139
1/29/2021 9:45:00 PM 7.6699 0.5824
1/29/2021 10:00:00 PM 7.6531 0.5759
1/29/2021 10:15:00 PM 7.6486 0.6479
1/29/2021 10:30:00 PM 7.6469 0.6386
1/29/2021 10:45:00 PM 7.6574 0.613
1/29/2021 11:00:00 PM 7.6607 0.8671
1/29/2021 11:15:00 PM 7.659 0.8925
1/29/2021 11:30:00 PM 7.6511 0.8186
1/29/2021 11:45:00 PM 7.6496 0.7
1/30/2021 12:00:00 AM 7.6455 0.7627
1/30/2021 12:15:00 AM 7.6495 0.7529
1/30/2021 12:30:00 AM 7.6477 0.7313
1/30/2021 12:45:00 AM 7.6428 0.7365
1/30/2021 1:00:00 AM 7.636 0.6666
1/30/2021 1:15:00 AM 7.6307 0.6425
1/30/2021 1:30:00 AM 7.6321 0.6342
1/30/2021 1:45:00 AM 7.6337 0.639
1/30/2021 2:00:00 AM 7.6301 0.64
1/30/2021 2:15:00 AM 7.6298 0.6832
1/30/2021 2:30:00 AM 7.6282 0.7556
1/30/2021 2:45:00 AM 7.6314 0.6997
1/30/2021 3:00:00 AM 7.6255 0.658
1/30/2021 3:15:00 AM 7.6217 0.6715
1/30/2021 3:30:00 AM 7.6223 0.675
1/30/2021 3:45:00 AM 7.6221 0.632
1/30/2021 4:00:00 AM 7.6292 0.6534
1/30/2021 4:15:00 AM 7.6381 0.6369
1/30/2021 4:30:00 AM 7.6298 0.6032
1/30/2021 4:45:00 AM 7.6306 0.5744
1/30/2021 5:00:00 AM 7.6214 0.5593
1/30/2021 5:15:00 AM 7.6096 0.5495
1/30/2021 5:30:00 AM 7.5976 0.5685
1/30/2021 5:45:00 AM 7.5698 0.5999
1/30/2021 6:00:00 AM 7.3536 0.5387
1/30/2021 6:15:00 AM 7.297 0.5298
1/30/2021 6:30:00 AM 7.3496 0.5465
1/30/2021 6:45:00 AM 7.3651 0.5063
1/30/2021 7:00:00 AM 7.4021 0.5291
1/30/2021 7:15:00 AM 7.433 0.5239
1/30/2021 7:30:00 AM 7.4416 0.5161
1/30/2021 7:45:00 AM 7.4383 0.5073
1/30/2021 8:00:00 AM 7.4597 0.5076
1/30/2021 8:15:00 AM 7.4854 0.5314
1/30/2021 8:30:00 AM 7.4959 0.5107
1/30/2021 8:45:00 AM 7.5026 0.5002
1/30/2021 9:00:00 AM 7.4925 0.5184
1/30/2021 9:15:00 AM 7.4892 0.517
1/30/2021 9:30:00 AM 7.4967 0.5072
1/30/2021 9:45:00 AM 7.4913 0.5426
1/30/2021 10:00:00 AM 7.4933 0.4817
1/30/2021 10:15:00 AM 7.4952 0.5129
1/30/2021 10:30:00 AM 7.4803 0.5363
1/30/2021 10:45:00 AM 7.4774 0.5469
1/30/2021 11:00:00 AM 7.4647 0.5329
1/30/2021 11:15:00 AM 7.4823 0.5327
1/30/2021 11:30:00 AM 7.4839 0.5395
1/30/2021 11:45:00 AM 7.483 0.6
1/30/2021 12:00:00 PM 7.5082 0.5433
1/30/2021 12:15:00 PM 7.5398 0.5594
1/30/2021 12:30:00 PM 7.5936 0.5346
1/30/2021 12:45:00 PM 7.6037 0.5503
1/30/2021 1:00:00 PM 7.6141 0.552
1/30/2021 1:15:00 PM 7.6057 0.5448
1/30/2021 1:30:00 PM 7.6212 0.5524
1/30/2021 1:45:00 PM 7.6141 0.5689
1/30/2021 2:00:00 PM 7.5748 0.5652
1/30/2021 2:15:00 PM 7.5752 0.5553
1/30/2021 2:30:00 PM 7.5826 0.5527
1/30/2021 2:45:00 PM 7.6012 0.5631
1/30/2021 3:00:00 PM 7.6293 0.5707
1/30/2021 3:15:00 PM 7.66 0.5492
1/30/2021 3:30:00 PM 7.6778 0.5542
1/30/2021 3:45:00 PM 7.6955 0.5547
1/30/2021 4:00:00 PM 7.7111 0.5635
1/30/2021 4:15:00 PM 7.726 0.5635
1/30/2021 4:30:00 PM 7.725 0.5607
1/30/2021 4:45:00 PM 7.7129 0.5301
1/30/2021 5:00:00 PM 7.7125 0.5238
1/30/2021 5:15:00 PM 7.7053 0.5506
1/30/2021 5:30:00 PM 7.7014 0.5533
1/30/2021 5:45:00 PM 7.693 0.5
1/30/2021 6:00:00 PM 7.6812 0.551
1/30/2021 6:15:00 PM 7.6735 0.5315
1/30/2021 6:30:00 PM 7.6708 0.5404
1/30/2021 6:45:00 PM 7.6608 0.5318
1/30/2021 7:00:00 PM 7.6475 0.6109
1/30/2021 7:15:00 PM 7.639 0.73
1/30/2021 7:30:00 PM 7.6309 0.6459
1/30/2021 7:45:00 PM 7.6165 0.6338
1/30/2021 8:00:00 PM 7.6078 0.6297
1/30/2021 8:15:00 PM 7.6059 0.6309
1/30/2021 8:30:00 PM 7.5965 0.6358
1/30/2021 8:45:00 PM 7.5894 0.6
1/30/2021 9:00:00 PM 7.583 0.6383
1/30/2021 9:15:00 PM 7.5772 0.6493
1/30/2021 9:30:00 PM 7.5805 0.6299
1/30/2021 9:45:00 PM 7.5815 0.6457
1/30/2021 10:00:00 PM 7.5765 0.6628
1/30/2021 10:15:00 PM 7.5708 0.6598
1/30/2021 10:30:00 PM 7.5685 0.6575
1/30/2021 10:45:00 PM 7.5643 0.6321
1/30/2021 11:00:00 PM 7.563 0.6523
1/30/2021 11:15:00 PM 7.5662 0.6163
1/30/2021 11:30:00 PM 7.5709 0.618
1/30/2021 11:45:00 PM 7.5698 0.6003
1/31/2021 12:00:00 AM 7.5658 0.6468
1/31/2021 12:15:00 AM 7.5634 0.6377
1/31/2021 12:30:00 AM 7.5583 0.6472
1/31/2021 12:45:00 AM 7.5579 0.6075
1/31/2021 1:00:00 AM 7.5564 0.5615
1/31/2021 1:15:00 AM 7.5533 0.5535
1/31/2021 1:30:00 AM 7.5501 0.6166
1/31/2021 1:45:00 AM 7.5484 0.7174
1/31/2021 2:00:00 AM 7.5491 0.7107
1/31/2021 2:15:00 AM 7.5492 0.6723
1/31/2021 2:30:00 AM 7.5452 0.6372
1/31/2021 2:45:00 AM 7.5432 0.5996
1/31/2021 3:00:00 AM 7.5372 0.5473
1/31/2021 3:15:00 AM 7.5356 0.536
1/31/2021 3:30:00 AM 7.5386 0.5358
1/31/2021 3:45:00 AM 7.5421 0.5358
1/31/2021 4:00:00 AM 7.5449 0.532
1/31/2021 4:15:00 AM 7.5428 0.5315
1/31/2021 4:30:00 AM 7.5385 0.536
1/31/2021 4:45:00 AM 7.5326 0.5347
1/31/2021 5:00:00 AM 7.5305 0.5287
1/31/2021 5:15:00 AM 7.529 0.5281
1/31/2021 5:30:00 AM 7.5243 0.5318
1/31/2021 5:45:00 AM 7.525 0.6
1/31/2021 6:00:00 AM 7.382 0.549
1/31/2021 6:15:00 AM 7.3411 0.5531
1/31/2021 6:30:00 AM 7.4249 0.5522
1/31/2021 6:45:00 AM 7.4753 0.5478
1/31/2021 7:00:00 AM 7.4936 0.5595
1/31/2021 7:15:00 AM 7.5071 0.5364
1/31/2021 7:30:00 AM 7.5145 0.5376
1/31/2021 7:45:00 AM 7.5146 0.6267
1/31/2021 8:00:00 AM 7.5192 0.6379
1/31/2021 8:15:00 AM 7.5191 0.588
1/31/2021 8:30:00 AM 7.5189 0.5414
1/31/2021 8:45:00 AM 7.5208 0.5001
1/31/2021 9:00:00 AM 7.5249 0.4737
1/31/2021 9:15:00 AM 7.5279 0.4512
1/31/2021 9:30:00 AM 7.5291 0.4433
1/31/2021 9:45:00 AM 7.5362 0.4364
1/31/2021 10:00:00 AM 7.5419 0.4319
1/31/2021 10:15:00 AM 7.5473 0.44
1/31/2021 10:30:00 AM 7.5595 0.4316
1/31/2021 10:45:00 AM 7.5815 0.4711
1/31/2021 11:00:00 AM 7.5697 0.4412
1/31/2021 11:15:00 AM 7.5518 0.4427
1/31/2021 11:30:00 AM 7.5508 1.0272
1/31/2021 11:45:00 AM 7.5362 0.5001
1/31/2021 12:00:00 PM 7.4926 0.4484
1/31/2021 12:15:00 PM 7.4888 0.4551
1/31/2021 12:30:00 PM 7.4898 0.4491
1/31/2021 12:45:00 PM 7.4903 0.4464
1/31/2021 1:00:00 PM 7.4927 0.4293
1/31/2021 1:15:00 PM 7.4947 0.4335
1/31/2021 1:30:00 PM 7.4955 0.4308
1/31/2021 1:45:00 PM 7.4946 0.4219
1/31/2021 2:00:00 PM 7.4892 0.419
1/31/2021 2:15:00 PM 7.4867 0.4226
1/31/2021 2:30:00 PM 7.489 0.4389
1/31/2021 2:45:00 PM 7.4907 0.416
1/31/2021 3:00:00 PM 7.4909 0.4302
1/31/2021 3:15:00 PM 7.4909 0.4184
1/31/2021 3:30:00 PM 7.4894 0.4379
1/31/2021 3:45:00 PM 7.4862 0.43
1/31/2021 4:00:00 PM 7.4863 0.4265
1/31/2021 4:15:00 PM 7.4837 0.4295
1/31/2021 4:30:00 PM 7.4782 0.4262
1/31/2021 4:45:00 PM 7.4801 0.4243
1/31/2021 5:00:00 PM 7.4808 0.4501
1/31/2021 5:15:00 PM 7.477 0.4215
1/31/2021 5:30:00 PM 7.4784 0.4718
1/31/2021 5:45:00 PM 7.4788 0.4994
1/31/2021 6:00:00 PM 7.4784 0.5836
1/31/2021 6:15:00 PM 7.4652 0.6338
1/31/2021 6:30:00 PM 7.4539 0.5784
1/31/2021 6:45:00 PM 7.4541 0.5552
1/31/2021 7:00:00 PM 7.4477 0.5355
1/31/2021 7:15:00 PM 7.4426 0.5297
1/31/2021 7:30:00 PM 7.4451 0.5216
1/31/2021 7:45:00 PM 7.4489 0.5295
1/31/2021 8:00:00 PM 7.4479 0.524
1/31/2021 8:15:00 PM 7.4483 0.5448
1/31/2021 8:30:00 PM 7.4464 0.5535
1/31/2021 8:45:00 PM 7.4466 0.5004
1/31/2021 9:00:00 PM 7.4437 0.55
1/31/2021 9:15:00 PM 7.4477 0.553
1/31/2021 9:30:00 PM 7.447 0.5677
1/31/2021 9:45:00 PM 7.4469 0.5637
1/31/2021 10:00:00 PM 7.4449 0.5738
1/31/2021 10:15:00 PM 7.4407 0.5576
1/31/2021 10:30:00 PM 7.4351 0.5553
1/31/2021 10:45:00 PM 7.4292 0.5417
1/31/2021 11:00:00 PM 7.4293 0.5287
1/31/2021 11:15:00 PM 7.4342 0.5749
1/31/2021 11:30:00 PM 7.4323 0.5348
1/31/2021 11:45:00 PM 7.441 0.5001
2/1/2021 12:00:00 AM 7.4367 0.5282
2/1/2021 12:15:00 AM 7.4382 0.5328
2/1/2021 12:30:00 AM 7.4334 0.547
2/1/2021 12:45:00 AM 7.4336 0.5404
2/1/2021 1:00:00 AM 7.4339 0.5643
2/1/2021 1:15:00 AM 7.4335 0.5485
2/1/2021 1:30:00 AM 7.4347 0.5618
2/1/2021 1:45:00 AM 7.4325 0.5511
2/1/2021 2:00:00 AM 7.4339 0.5517
2/1/2021 2:15:00 AM 7.434 0.5569
2/1/2021 2:30:00 AM 7.4307 0.5487
2/1/2021 2:45:00 AM 7.427 0.5
2/1/2021 3:00:00 AM 7.4329 0.5557
2/1/2021 3:15:00 AM 7.4341 0.5308
2/1/2021 3:30:00 AM 7.432 0.5576
2/1/2021 3:45:00 AM 7.4289 0.5456
2/1/2021 4:00:00 AM 7.4302 0.5501
2/1/2021 4:15:00 AM 7.4286 0.5624
2/1/2021 4:30:00 AM 7.4295 0.559
2/1/2021 4:45:00 AM 7.4308 0.5406
2/1/2021 5:00:00 AM 7.4299 0.5507
2/1/2021 5:15:00 AM 7.4248 0.5377
2/1/2021 5:30:00 AM 7.4216 0.5155
2/1/2021 5:45:00 AM 7.4172 0.5
2/1/2021 6:00:00 AM 7.3663 0.5516
2/1/2021 6:15:00 AM 7.3222 0.5048
2/1/2021 6:30:00 AM 7.3383 0.4978
2/1/2021 6:45:00 AM 7.3422 0.5042
2/1/2021 7:00:00 AM 7.3424 0.4629
2/1/2021 7:15:00 AM 7.3431 0.4474
2/1/2021 7:30:00 AM 7.3426 0.4327
2/1/2021 7:45:00 AM 7.3393 0.4384
2/1/2021 8:00:00 AM 7.3335 0.4295
2/1/2021 8:15:00 AM 7.3293 0.4293
2/1/2021 8:30:00 AM 7.3199 0.4377
2/1/2021 8:45:00 AM 7.3192 0.4998
2/1/2021 9:00:00 AM 7.312 0.4382
2/1/2021 9:15:00 AM 7.3073 0.4261
2/1/2021 9:30:00 AM 7.2995 0.445
2/1/2021 9:45:00 AM 7.2993 0.5404
2/1/2021 10:00:00 AM 7.2965 0.49
2/1/2021 10:15:00 AM 7.294 0.4284
2/1/2021 10:30:00 AM 7.2918 0.4299
2/1/2021 10:45:00 AM 7.2897 0.4481
2/1/2021 11:00:00 AM 7.2895 0.4325
2/1/2021 11:15:00 AM 7.2929 0.4267
2/1/2021 11:30:00 AM 7.3311 0.436
2/1/2021 11:45:00 AM 7.3612 0.4998
2/1/2021 12:00:00 PM 7.4414 0.4311
2/1/2021 12:15:00 PM 7.4999 0.4329
2/1/2021 12:30:00 PM 7.5435 0.4302
2/1/2021 12:45:00 PM 7.5762 0.4234
2/1/2021 1:00:00 PM 7.5608 0.4217
2/1/2021 1:15:00 PM 7.594 0.4233
2/1/2021 1:30:00 PM 7.6232 0.4306
2/1/2021 1:45:00 PM 7.6206 0.4247
2/1/2021 2:00:00 PM 7.624 0.4303
2/1/2021 2:15:00 PM 7.623 0.4208
2/1/2021 2:30:00 PM 7.4837 0.435
2/1/2021 2:45:00 PM 7.355 0.4458
2/1/2021 3:00:00 PM 7.3071 0.4321
2/1/2021 3:15:00 PM 7.2897 0.4379
2/1/2021 3:30:00 PM 7.2844 0.4335
2/1/2021 3:45:00 PM 7.2845 0.4215
2/1/2021 4:00:00 PM 7.2832 0.4474
2/1/2021 4:15:00 PM 7.2864 0.4302
2/1/2021 4:30:00 PM 7.2877 0.4362
2/1/2021 4:45:00 PM 7.2847 0.4212
2/1/2021 5:00:00 PM 7.2842 0.4341
2/1/2021 5:15:00 PM 7.285 0.4612
2/1/2021 5:30:00 PM 7.2867 0.4793
2/1/2021 5:45:00 PM 7.287 0.4999
2/1/2021 6:00:00 PM 7.2868 0.5437
2/1/2021 6:15:00 PM 7.2885 0.657
2/1/2021 6:30:00 PM 7.2816 0.6159
2/1/2021 6:45:00 PM 7.2994 0.5509
2/1/2021 7:00:00 PM 7.3365 0.5453
2/1/2021 7:15:00 PM 7.3837 0.5441
2/1/2021 7:30:00 PM 7.437 0.5317
2/1/2021 7:45:00 PM 7.4895 0.5247
2/1/2021 8:00:00 PM 7.5236 0.5335
2/1/2021 8:15:00 PM 7.5613 0.5269
2/1/2021 8:30:00 PM 7.5678 0.5229
2/1/2021 8:45:00 PM 7.567 0.6
2/1/2021 9:00:00 PM 7.5457 0.5266
2/1/2021 9:15:00 PM 7.5414 0.5252
2/1/2021 9:30:00 PM 7.5293 0.5234
2/1/2021 9:45:00 PM 7.5343 0.5383
2/1/2021 10:00:00 PM 7.5539 0.5488
2/1/2021 10:15:00 PM 7.5541 0.5459
2/1/2021 10:30:00 PM 7.5647 0.5586
2/1/2021 10:45:00 PM 7.5955 0.5506
2/1/2021 11:00:00 PM 7.611 0.5339
2/1/2021 11:15:00 PM 7.4319 0.5502
2/1/2021 11:30:00 PM 7.3212 0.5379
2/1/2021 11:45:00 PM 7.2982 0.6001
2/2/2021 12:00:00 AM 7.27 0.5975
2/2/2021 12:15:00 AM 7.2741 0.5493
2/2/2021 12:30:00 AM 7.2744 0.5246
2/2/2021 12:45:00 AM 7.272 0.5422
2/2/2021 1:00:00 AM 7.2685 0.537
2/2/2021 1:15:00 AM 7.2653 0.5339
2/2/2021 1:30:00 AM 7.2627 0.5415
2/2/2021 1:45:00 AM 7.2649 0.5296
2/2/2021 2:00:00 AM 7.2682 0.5466
2/2/2021 2:15:00 AM 7.2705 0.5453
2/2/2021 2:30:00 AM 7.2705 0.5401
2/2/2021 2:45:00 AM 7.2688 0.5002
2/2/2021 3:00:00 AM 7.2689 0.5389
2/2/2021 3:15:00 AM 7.2646 0.5351
2/2/2021 3:30:00 AM 7.262 0.5358
2/2/2021 3:45:00 AM 7.262 0.5284
2/2/2021 4:00:00 AM 7.2646 0.5256
2/2/2021 4:15:00 AM 7.2767 0.5355
2/2/2021 4:30:00 AM 7.3222 0.5423
2/2/2021 4:45:00 AM 7.3759 0.5329
2/2/2021 5:00:00 AM 7.4215 0.5468
2/2/2021 5:15:00 AM 7.477 0.5511
2/2/2021 5:30:00 AM 7.5048 0.5318
2/2/2021 5:45:00 AM 7.5166 0.5002
2/2/2021 6:00:00 AM 7.5308 0.5776
2/2/2021 6:15:00 AM 7.4542 0.5545
2/2/2021 6:30:00 AM 7.5063 0.556
2/2/2021 6:45:00 AM 7.5538 0.5366
2/2/2021 7:00:00 AM 7.5635 0.5393
2/2/2021 7:15:00 AM 7.5619 0.5233
2/2/2021 7:30:00 AM 7.5611 0.5342
2/2/2021 7:45:00 AM 7.5903 0.4894
2/2/2021 8:00:00 AM 7.5785 0.4624
2/2/2021 8:15:00 AM 7.5157 0.4584
2/2/2021 8:30:00 AM 7.3465 0.4652
2/2/2021 8:45:00 AM 7.301 0.5
2/2/2021 9:00:00 AM 7.2485 0.6199
2/2/2021 9:15:00 AM 7.2418 0.5615
2/2/2021 9:30:00 AM 7.2378 0.5615
2/2/2021 9:45:00 AM 7.2365 0.5483
2/2/2021 10:00:00 AM 7.2352 0.5518
2/2/2021 10:15:00 AM 7.2362 0.5408
2/2/2021 10:30:00 AM 7.2381 0.5558
2/2/2021 10:45:00 AM 7.2374 0.5517
2/2/2021 11:00:00 AM 7.2358 0.5668
2/2/2021 11:15:00 AM 7.2372 0.5559
2/2/2021 11:30:00 AM 7.2419 0.5569
2/2/2021 11:45:00 AM 7.2478 0.6
2/2/2021 12:00:00 PM 7.2457 0.564
2/2/2021 12:15:00 PM 7.2463 0.5754
2/2/2021 12:30:00 PM 7.2466 0.544
2/2/2021 12:45:00 PM 7.2462 0.5476
2/2/2021 1:00:00 PM 7.25 0.5436
2/2/2021 1:15:00 PM 7.2519 0.5316
2/2/2021 1:30:00 PM 7.2543 0.5233
2/2/2021 1:45:00 PM 7.2552 0.5157
2/2/2021 2:00:00 PM 7.2557 0.5236
2/2/2021 2:15:00 PM 7.257 0.5281
2/2/2021 2:30:00 PM 7.261 0.529
2/2/2021 2:45:00 PM 7.2633 0.5147
2/2/2021 3:00:00 PM 7.2605 0.5188
2/2/2021 3:15:00 PM 7.2601 0.5293
2/2/2021 3:30:00 PM 7.2603 0.5376
2/2/2021 3:45:00 PM 7.2614 0.5244
2/2/2021 4:00:00 PM 7.2645 0.5328
2/2/2021 4:15:00 PM 7.27 0.5262
2/2/2021 4:30:00 PM 7.2771 0.5409
2/2/2021 4:45:00 PM 7.2828 0.5435
2/2/2021 5:00:00 PM 7.2843 0.5368
2/2/2021 5:15:00 PM 7.2849 0.5552
2/2/2021 5:30:00 PM 7.285 0.5568
2/2/2021 5:45:00 PM 7.2856 0.5999
2/2/2021 6:00:00 PM 7.2835 0.63
2/2/2021 6:15:00 PM 7.2845 0.661
2/2/2021 6:30:00 PM 7.2814 0.6414
2/2/2021 6:45:00 PM 7.2901 0.6669
2/2/2021 7:00:00 PM 7.3388 0.6517
2/2/2021 7:15:00 PM 7.4143 0.672
2/2/2021 7:30:00 PM 7.5108 0.7565
2/2/2021 7:45:00 PM 7.5737 0.6297
2/2/2021 8:00:00 PM 7.6168 0.6231
2/2/2021 8:15:00 PM 7.6409 0.6336
2/2/2021 8:30:00 PM 7.6442 0.6556
2/2/2021 8:45:00 PM 7.6524 0.6
2/2/2021 9:00:00 PM 7.6105 0.6019
2/2/2021 9:15:00 PM 7.3886 0.601
2/2/2021 9:30:00 PM 7.305 0.5675
2/2/2021 9:45:00 PM 7.2784 0.6216
2/2/2021 10:00:00 PM 7.2642 0.6182
2/2/2021 10:15:00 PM 7.259 0.6263
2/2/2021 10:30:00 PM 7.2543 0.6666
2/2/2021 10:45:00 PM 7.2588 0.6331
2/2/2021 11:00:00 PM 7.2653 0.65
2/2/2021 11:15:00 PM 7.2704 0.6767
2/2/2021 11:30:00 PM 7.2694 0.6306
2/2/2021 11:45:00 PM 7.266 0.6
2/3/2021 12:00:00 AM 7.2648 0.6297
2/3/2021 12:15:00 AM 7.2674 0.6389
2/3/2021 12:30:00 AM 7.2721 0.6422
2/3/2021 12:45:00 AM 7.2749 0.633
2/3/2021 1:00:00 AM 7.2744 0.5429
2/3/2021 1:15:00 AM 7.2771 0.5352
2/3/2021 1:30:00 AM 7.3079 0.5383
2/3/2021 1:45:00 AM 7.3663 0.528
2/3/2021 2:00:00 AM 7.4188 0.532
2/3/2021 2:15:00 AM 7.4797 0.5327
2/3/2021 2:30:00 AM 7.5417 0.5397
2/3/2021 2:45:00 AM 7.5754 0.5996
2/3/2021 3:00:00 AM 7.646 0.5316
2/3/2021 3:15:00 AM 7.6624 0.5386
2/3/2021 3:30:00 AM 7.6603 0.5335
2/3/2021 3:45:00 AM 7.6728 0.5422
2/3/2021 4:00:00 AM 7.5167 0.5534
2/3/2021 4:15:00 AM 7.3641 0.5597
2/3/2021 4:30:00 AM 7.3133 0.5595
2/3/2021 4:45:00 AM 7.2816 0.5274
2/3/2021 5:00:00 AM 7.2761 0.478
2/3/2021 5:15:00 AM 7.2736 0.4787
2/3/2021 5:30:00 AM 7.2736 0.4905
2/3/2021 5:45:00 AM 7.2702 0.5001
2/3/2021 6:00:00 AM 7.2387 0.5452
2/3/2021 6:15:00 AM 7.1511 0.4829
2/3/2021 6:30:00 AM 7.198 0.4652
2/3/2021 6:45:00 AM 7.2288 0.4647
2/3/2021 7:00:00 AM 7.2487 0.4307
2/3/2021 7:15:00 AM 7.2588 0.4304
2/3/2021 7:30:00 AM 7.2677 0.4327
2/3/2021 7:45:00 AM 7.2721 0.4414
2/3/2021 8:00:00 AM 7.2752 0.4303
2/3/2021 8:15:00 AM 7.2764 0.4313
2/3/2021 8:30:00 AM 7.2771 0.43
2/3/2021 8:45:00 AM 7.2814 0.5
2/3/2021 9:00:00 AM 7.2793 0.4327
2/3/2021 9:15:00 AM 7.2796 0.4335
2/3/2021 9:30:00 AM 7.2794 0.4229
2/3/2021 9:45:00 AM 7.2763 0.4343
2/3/2021 10:00:00 AM 7.277 0.4388
2/3/2021 10:15:00 AM 7.2792 0.4271
2/3/2021 10:30:00 AM 7.2764 0.4288
2/3/2021 10:45:00 AM 7.2782 0.4345
2/3/2021 11:00:00 AM 7.2792 0.4347
2/3/2021 11:15:00 AM 7.28 0.4311
2/3/2021 11:30:00 AM 7.2798 0.4344
2/3/2021 11:45:00 AM 7.2772 0.4999
2/3/2021 12:00:00 PM 7.2751 0.4276
2/3/2021 12:15:00 PM 7.2744 0.4461
2/3/2021 12:30:00 PM 7.2746 0.4315
2/3/2021 12:45:00 PM 7.2754 0.4263
2/3/2021 1:00:00 PM 7.2763 0.4249
2/3/2021 1:15:00 PM 7.2785 0.4224
2/3/2021 1:30:00 PM 7.2801 0.4319
2/3/2021 1:45:00 PM 7.2762 0.4304
2/3/2021 2:00:00 PM 7.2752 0.424
2/3/2021 2:15:00 PM 7.2741 0.4427
2/3/2021 2:30:00 PM 7.2687 0.4473
2/3/2021 2:45:00 PM 7.2638 0.4364
2/3/2021 3:00:00 PM 7.2687 0.4305
2/3/2021 3:15:00 PM 7.2707 0.4344
2/3/2021 3:30:00 PM 7.2726 0.4404
2/3/2021 3:45:00 PM 7.2747 0.4229
2/3/2021 4:00:00 PM 7.2768 0.4281
2/3/2021 4:15:00 PM 7.2801 0.4453
2/3/2021 4:30:00 PM 7.2802 0.4371
2/3/2021 4:45:00 PM 7.2799 0.4386
2/3/2021 5:00:00 PM 7.2796 0.4331
2/3/2021 5:15:00 PM 7.2796 0.4311
2/3/2021 5:30:00 PM 7.2743 0.4338
2/3/2021 5:45:00 PM 7.273 0.5001
2/3/2021 6:00:00 PM 7.2746 0.5261
2/3/2021 6:15:00 PM 7.2879 0.5424
2/3/2021 6:30:00 PM 7.3538 0.5362
2/3/2021 6:45:00 PM 7.4598 0.5715
2/3/2021 7:00:00 PM 7.5934 0.5082
2/3/2021 7:15:00 PM 7.6875 0.6203
2/3/2021 7:30:00 PM 7.7439 0.5552
2/3/2021 7:45:00 PM 7.7615 0.512
2/3/2021 8:00:00 PM 7.782 0.5554
2/3/2021 8:15:00 PM 7.7788 0.6234
2/3/2021 8:30:00 PM 7.7856 0.5194
2/3/2021 8:45:00 PM 7.7742 0.5
2/3/2021 9:00:00 PM 7.7447 0.5359
2/3/2021 9:15:00 PM 7.5249 0.5659
2/3/2021 9:30:00 PM 7.3654 0.5518
2/3/2021 9:45:00 PM 7.3114 0.5707
2/3/2021 10:00:00 PM 7.2922 0.5414
2/3/2021 10:15:00 PM 7.2889 0.5678
2/3/2021 10:30:00 PM 7.2854 0.5647
2/3/2021 10:45:00 PM 7.2847 0.5739
2/3/2021 11:00:00 PM 7.2818 0.5372
2/3/2021 11:15:00 PM 7.2826 0.5661
2/3/2021 11:30:00 PM 7.2847 0.5423
2/3/2021 11:45:00 PM 7.287 0.4995
2/4/2021 12:00:00 AM 7.2894 0.5356
2/4/2021 12:15:00 AM 7.2895 0.4987
2/4/2021 12:30:00 AM 7.2898 0.5413
2/4/2021 12:45:00 AM 7.2944 0.5096
2/4/2021 1:00:00 AM 7.2962 0.5504
2/4/2021 1:15:00 AM 7.2973 0.5884
2/4/2021 1:30:00 AM 7.2989 0.5555
2/4/2021 1:45:00 AM 7.2996 0.5556
2/4/2021 2:00:00 AM 7.3033 0.5297
2/4/2021 2:15:00 AM 7.3045 0.5235
2/4/2021 2:30:00 AM 7.307 0.474
2/4/2021 2:45:00 AM 7.3108 0.5
2/4/2021 3:00:00 AM 7.3055 0.4757
2/4/2021 3:15:00 AM 7.3043 0.4709
2/4/2021 3:30:00 AM 7.3037 0.4334
2/4/2021 3:45:00 AM 7.3023 0.4636
2/4/2021 4:00:00 AM 7.302 0.4707
2/4/2021 4:15:00 AM 7.298 0.4422
2/4/2021 4:30:00 AM 7.3183 0.4486
2/4/2021 4:45:00 AM 7.393 0.4387
2/4/2021 5:00:00 AM 7.4943 0.4503
2/4/2021 5:15:00 AM 7.6289 0.4529
2/4/2021 5:30:00 AM 7.6966 0.4569
2/4/2021 5:45:00 AM 7.7294 0.4999
2/4/2021 6:00:00 AM 7.7268 0.5037
2/4/2021 6:15:00 AM 7.634 0.4517
2/4/2021 6:30:00 AM 7.6972 0.4253
2/4/2021 6:45:00 AM 7.7396 0.4238
2/4/2021 7:00:00 AM 7.7382 0.436
2/4/2021 7:15:00 AM 7.738 0.4549
2/4/2021 7:30:00 AM 7.7475 0.4413
2/4/2021 7:45:00 AM 7.7356 0.4345
2/4/2021 8:00:00 AM 7.5436 0.4403
2/4/2021 8:15:00 AM 7.3852 0.4305
2/4/2021 8:30:00 AM 7.3297 0.4406
2/4/2021 8:45:00 AM 7.315 0.5
2/4/2021 9:00:00 AM 7.3031 0.4416
2/4/2021 9:15:00 AM 7.2988 0.4397
2/4/2021 9:30:00 AM 7.2943 0.4523
2/4/2021 9:45:00 AM 7.2951 0.4301
2/4/2021 10:00:00 AM 7.2981 0.4481
2/4/2021 10:15:00 AM 7.2899 0.5317
2/4/2021 10:30:00 AM 7.2828 0.4738
2/4/2021 10:45:00 AM 7.2846 0.4292
2/4/2021 11:00:00 AM 7.2896 0.4278
2/4/2021 11:15:00 AM 7.2899 0.4254
2/4/2021 11:30:00 AM 7.2873 0.4332
2/4/2021 11:45:00 AM 7.2856 0.4999
2/4/2021 12:00:00 PM 7.2857 0.4268
2/4/2021 12:15:00 PM 7.2874 0.4255
2/4/2021 12:30:00 PM 7.2869 0.4209
2/4/2021 12:45:00 PM 7.2852 0.4255
2/4/2021 1:00:00 PM 7.2843 0.4333
2/4/2021 1:15:00 PM 7.2831 0.4266
2/4/2021 1:30:00 PM 7.2825 0.44
2/4/2021 1:45:00 PM 7.2803 0.4372
2/4/2021 2:00:00 PM 7.2814 0.4597
2/4/2021 2:15:00 PM 7.2807 0.4799
2/4/2021 2:30:00 PM 7.2835 0.4261
2/4/2021 2:45:00 PM 7.2852 0.423
2/4/2021 3:00:00 PM 7.2883 0.4432
2/4/2021 3:15:00 PM 7.2895 0.4414
2/4/2021 3:30:00 PM 7.2897 0.4477
2/4/2021 3:45:00 PM 7.2818 0.4765
2/4/2021 4:00:00 PM 7.1918 0.4698
2/4/2021 4:15:00 PM 7.1206 0.4238
2/4/2021 4:30:00 PM 7.1711 0.4409
2/4/2021 4:45:00 PM 7.2055 0.4369
2/4/2021 5:00:00 PM 7.2281 0.4418
2/4/2021 5:15:00 PM 7.2449 0.4365
2/4/2021 5:30:00 PM 7.2621 0.4247
2/4/2021 5:45:00 PM 7.2716 0.4999
2/4/2021 6:00:00 PM 7.277 0.5533
2/4/2021 6:15:00 PM 7.2835 0.5321
2/4/2021 6:30:00 PM 7.2854 0.5367
2/4/2021 6:45:00 PM 7.2904 0.5319
2/4/2021 7:00:00 PM 7.2978 0.5447
2/4/2021 7:15:00 PM 7.3051 0.545
2/4/2021 7:30:00 PM 7.308 0.5558
2/4/2021 7:45:00 PM 7.3099 0.5445
2/4/2021 8:00:00 PM 7.3117 0.5393
2/4/2021 8:15:00 PM 7.314 0.5345
2/4/2021 8:30:00 PM 7.3159 0.5367
2/4/2021 8:45:00 PM 7.3248 0.5001
2/4/2021 9:00:00 PM 7.3228 0.5644
2/4/2021 9:15:00 PM 7.3169 0.5591
2/4/2021 9:30:00 PM 7.3195 0.5523
2/4/2021 9:45:00 PM 7.3259 0.5512
2/4/2021 10:00:00 PM 7.3285 0.5697
2/4/2021 10:15:00 PM 7.3296 0.5582
2/4/2021 10:30:00 PM 7.3325 0.5591
2/4/2021 10:45:00 PM 7.3332 0.5455
2/4/2021 11:00:00 PM 7.3309 0.5509
2/4/2021 11:15:00 PM 7.3312 0.5449
2/4/2021 11:30:00 PM 7.3607 0.6178
2/4/2021 11:45:00 PM 7.4018 0.5999
2/5/2021 12:00:00 AM 7.6036 0.5526
2/5/2021 12:15:00 AM 7.7401 0.5737
2/5/2021 12:30:00 AM 7.8079 0.575
2/5/2021 12:45:00 AM 7.8303 0.5458
2/5/2021 1:00:00 AM 7.833 0.5369
2/5/2021 1:15:00 AM 7.8368 0.5501
2/5/2021 1:30:00 AM 7.8306 0.5374
2/5/2021 1:45:00 AM 7.8372 0.538
2/5/2021 2:00:00 AM 7.7354 0.5404
2/5/2021 2:15:00 AM 7.5075 0.5133
2/5/2021 2:30:00 AM 7.396 0.4889
2/5/2021 2:45:00 AM 7.371 0.5001
2/5/2021 3:00:00 AM 7.3234 0.4875
2/5/2021 3:15:00 AM 7.3123 0.5067
2/5/2021 3:30:00 AM 7.3117 0.4837
2/5/2021 3:45:00 AM 7.2872 0.4484
2/5/2021 4:00:00 AM 7.2996 0.5215
2/5/2021 4:15:00 AM 7.2991 0.4443
2/5/2021 4:30:00 AM 7.2882 0.4204
2/5/2021 4:45:00 AM 7.2846 0.4212
2/5/2021 5:00:00 AM 7.2858 0.4523
2/5/2021 5:15:00 AM 7.2762 0.5111
2/5/2021 5:30:00 AM 7.2678 0.5038
2/5/2021 5:45:00 AM 7.2772 0.4998
2/5/2021 6:00:00 AM 7.2696 0.5113
2/5/2021 6:15:00 AM 7.2802 0.4312
2/5/2021 6:30:00 AM 7.29 0.4215
2/5/2021 6:45:00 AM 7.2973 0.4336
2/5/2021 7:00:00 AM 7.2997 0.4322
2/5/2021 7:15:00 AM 7.3038 0.4341
2/5/2021 7:30:00 AM 7.3041 0.4334
2/5/2021 7:45:00 AM 7.3045 0.448
2/5/2021 8:00:00 AM 7.3056 0.4272
2/5/2021 8:15:00 AM 7.3054 0.4424
2/5/2021 8:30:00 AM 7.3088 0.4286
2/5/2021 8:45:00 AM 7.3108 0.4997
2/5/2021 9:00:00 AM 7.3089 0.5553
2/5/2021 9:15:00 AM 7.3092 0.5421
2/5/2021 9:30:00 AM 7.309 0.4476
2/5/2021 9:45:00 AM 7.309 0.4325
2/5/2021 10:00:00 AM 7.3095 0.4337
2/5/2021 10:15:00 AM 7.3099 0.4304
2/5/2021 10:30:00 AM 7.3087 0.4221
2/5/2021 10:45:00 AM 7.3092 0.4323
2/5/2021 11:00:00 AM 7.3096 0.4413
2/5/2021 11:15:00 AM 7.313 0.4309
2/5/2021 11:30:00 AM 7.3135 0.4293
2/5/2021 11:45:00 AM 7.315 0.5
2/5/2021 12:00:00 PM 7.3156 0.4261
2/5/2021 12:15:00 PM 7.3137 0.4307
2/5/2021 12:30:00 PM 7.3142 0.4298
2/5/2021 12:45:00 PM 7.3145 0.4353
2/5/2021 1:00:00 PM 7.3175 0.4295
2/5/2021 1:15:00 PM 7.3148 0.4328
2/5/2021 1:30:00 PM 7.317 0.4222
2/5/2021 1:45:00 PM 7.3213 0.4339
2/5/2021 2:00:00 PM 7.3234 0.4375
2/5/2021 2:15:00 PM 7.3272 0.4322
2/5/2021 2:30:00 PM 7.3262 0.4332
2/5/2021 2:45:00 PM 7.328 0.4291
2/5/2021 3:00:00 PM 7.3219 0.5579
2/5/2021 3:15:00 PM 7.3188 0.5525
2/5/2021 3:30:00 PM 7.3253 0.5648
2/5/2021 3:45:00 PM 7.4045 0.5267
2/5/2021 4:00:00 PM 7.5579 0.5026
2/5/2021 4:15:00 PM 7.7183 0.5197
2/5/2021 4:30:00 PM 7.8049 0.5231
2/5/2021 4:45:00 PM 7.8525 0.5176
2/5/2021 5:00:00 PM 7.8762 0.5416
2/5/2021 5:15:00 PM 7.9069 0.515
2/5/2021 5:30:00 PM 7.9167 0.5519
2/5/2021 5:45:00 PM 7.8946 0.5001
2/5/2021 6:00:00 PM 7.5689 0.5626
2/5/2021 6:15:00 PM 7.4362 0.5449
2/5/2021 6:30:00 PM 7.3876 0.5293
2/5/2021 6:45:00 PM 7.3628 0.5326
2/5/2021 7:00:00 PM 7.351 0.5464
2/5/2021 7:15:00 PM 7.347 0.5325
2/5/2021 7:30:00 PM 7.3446 0.5401
2/5/2021 7:45:00 PM 7.3428 0.5405
2/5/2021 8:00:00 PM 7.342 0.5649
2/5/2021 8:15:00 PM 7.3421 0.5852
2/5/2021 8:30:00 PM 7.3401 0.5437
2/5/2021 8:45:00 PM 7.3444 0.6002
2/5/2021 9:00:00 PM 7.3384 0.5364
2/5/2021 9:15:00 PM 7.3411 0.5444
2/5/2021 9:30:00 PM 7.3401 0.5491
2/5/2021 9:45:00 PM 7.3379 0.5257
2/5/2021 10:00:00 PM 7.3407 0.5308
2/5/2021 10:15:00 PM 7.3417 0.5291
2/5/2021 10:30:00 PM 7.3429 0.5193
2/5/2021 10:45:00 PM 7.3455 0.534
2/5/2021 11:00:00 PM 7.3863 0.5336
2/5/2021 11:15:00 PM 7.4918 0.5401
2/5/2021 11:30:00 PM 7.6643 0.5602
2/5/2021 11:45:00 PM 7.721 0.5999
2/6/2021 12:00:00 AM 7.817 0.5352
2/6/2021 12:15:00 AM 7.8538 0.5295
2/6/2021 12:30:00 AM 7.8613 0.55
2/6/2021 12:45:00 AM 7.6987 0.5389
2/6/2021 1:00:00 AM 7.4892 0.5574
2/6/2021 1:15:00 AM 7.3934 0.5582
2/6/2021 1:30:00 AM 7.3543 0.5337
2/6/2021 1:45:00 AM 7.3295 0.5395
2/6/2021 2:00:00 AM 7.3295 0.5522
2/6/2021 2:15:00 AM 7.3218 0.5414
2/6/2021 2:30:00 AM 7.3095 0.571
2/6/2021 2:45:00 AM 7.3108 0.5001
2/6/2021 3:00:00 AM 7.3123 0.4912
2/6/2021 3:15:00 AM 7.3056 0.4664
2/6/2021 3:30:00 AM 7.3126 0.5017
2/6/2021 3:45:00 AM 7.3101 0.4726
2/6/2021 4:00:00 AM 7.3027 0.5082
2/6/2021 4:15:00 AM 7.2979 0.4814
2/6/2021 4:30:00 AM 7.2857 0.4818
2/6/2021 4:45:00 AM 7.2835 0.5488
2/6/2021 5:00:00 AM 7.2818 0.5309
2/6/2021 5:15:00 AM 7.2802 0.4751
2/6/2021 5:30:00 AM 7.2819 0.4881
2/6/2021 5:45:00 AM 7.2814 0.5
2/6/2021 6:00:00 AM 7.2653 0.4391
2/6/2021 6:15:00 AM 7.2696 0.4352
2/6/2021 6:30:00 AM 7.2679 0.4529
2/6/2021 6:45:00 AM 7.265 0.4384
2/6/2021 7:00:00 AM 7.2586 0.4256
2/6/2021 7:15:00 AM 7.2624 0.4366
2/6/2021 7:30:00 AM 7.2609 0.4324
2/6/2021 7:45:00 AM 7.2619 0.4435
2/6/2021 8:00:00 AM 7.264 0.4287
2/6/2021 8:15:00 AM 7.2583 0.4441
2/6/2021 8:30:00 AM 7.253 0.4446
2/6/2021 8:45:00 AM